Time,TemperatureF,DewpointF,PressureIn,WindDirection,WindDirectionDegrees,WindSpeedMPH,WindSpeedGustMPH,Humidity,HourlyPrecipIn,Conditions,Clouds,dailyrainin,SoftwareType,DateUTC
2013-06-03 00:01:00,68.2,64.2,29.73,SSE,147,8.1,11.5,87,0.00,CLR,OVC,0.00,WeatherDisplay:10.37,2013-06-03 04:01:00,
2013-06-03 00:06:00,68.3,64.3,29.73,SSE,150,11.0,13.8,87,0.00,CLR,OVC,0.00,WeatherDisplay:10.37,2013-06-03 04:06:00,
2013-06-03 00:07:00,68.4,64.0,29.73,SE,127,9.3,13.8,86,0.00,CLR,OVC,0.00,WeatherDisplay:10.37,2013-06-03 04:07:00,
2013-06-03 00:11:00,68.5,64.1,29.73,SSE,157,7.7,11.5,86,0.00,CLR,OVC,0.00,WeatherDisplay:10.37,2013-06-03 04:11:00,
2013-06-03 00:12:00,68.5,64.1,29.73,SSE,150,7.3,11.5,86,0.00,CLR,OVC,0.00,WeatherDisplay:10.37,2013-06-03 04:12:00,
2013-06-03 00:17:00,68.8,64.1,29.73,South,183,7.3,11.5,85,0.00,CLR,OVC,0.00,WeatherDisplay:10.37,2013-06-03 04:17:00,
2013-06-03 00:22:00,69.1,64.4,29.73,SE,143,12.8,17.3,85,0.00,CLR,OVC,0.00,WeatherDisplay:10.37,2013-06-03 04:22:00,
2013-06-03 00:27:00,69.0,64.6,29.74,SSE,159,10.8,14.0,86,0.00,CLR,OVC,0.00,WeatherDisplay:10.37,2013-06-03 04:27:00,
2013-06-03 00:32:00,69.3,64.6,29.74,South,176,9.5,15.0,85,0.00,CLR,OVC,0.00,WeatherDisplay:10.37,2013-06-03 04:32:00,
2013-06-03 00:33:00,69.3,64.6,29.74,SE,146,8.4,12.0,85,0.00,CLR,OVC,0.00,WeatherDisplay:10.37,2013-06-03 04:33:00,
2013-06-03 00:37:00,69.4,64.4,29.74,South,180,6.3,11.5,84,0.00,CLR,OVC,0.00,WeatherDisplay:10.37,2013-06-03 04:37:00,
2013-06-03 00:38:00,69.4,64.4,29.74,SSE,161,7.4,10.4,84,0.00,CLR,OVC,0.00,WeatherDisplay:10.37,2013-06-03 04:38:00,
2013-06-03 00:42:00,69.6,64.2,29.74,South,169,6.6,15.0,83,0.00,CLR,OVC,0.00,WeatherDisplay:10.37,2013-06-03 04:42:00,
2013-06-03 00:43:00,69.6,64.2,29.74,SSE,158,7.0,11.5,83,0.00,CLR,OVC,0.00,WeatherDisplay:10.37,2013-06-03 04:43:00,
2013-06-03 00:44:00,69.6,64.2,29.74,SSE,164,6.5,10.4,83,0.00,CLR,OVC,0.00,WeatherDisplay:10.37,2013-06-03 04:44:00,
2013-06-03 00:48:00,69.6,64.2,29.74,SSE,158,7.0,10.4,83,0.00,CLR,OVC,0.00,WeatherDisplay:10.37,2013-06-03 04:48:00,
2013-06-03 00:49:00,69.6,64.2,29.74,South,179,6.7,10.4,83,0.00,CLR,OVC,0.00,WeatherDisplay:10.37,2013-06-03 04:49:00,
2013-06-03 00:53:00,69.6,63.9,29.74,South,172,9.3,16.1,82,0.00,CLR,OVC,0.00,WeatherDisplay:10.37,2013-06-03 04:53:00,
2013-06-03 00:54:00,69.7,64.0,29.74,South,182,10.2,12.7,82,0.00,CLR,OVC,0.00,WeatherDisplay:10.37,2013-06-03 04:54:00,
2013-06-03 00:58:00,69.9,63.8,29.74,South,170,10.5,16.1,81,0.00,CLR,OVC,0.00,WeatherDisplay:10.37,2013-06-03 04:58:00,
2013-06-03 00:59:00,69.9,63.8,29.74,SSE,156,11.3,16.1,81,0.00,CLR,OVC,0.00,WeatherDisplay:10.37,2013-06-03 04:59:00,
2013-06-03 01:03:00,69.7,63.3,29.74,South,188,9.8,16.1,80,0.00,CLR,OVC,0.00,WeatherDisplay:10.37,2013-06-03 05:03:00,
2013-06-03 01:04:00,69.7,63.3,29.73,SSW,198,7.2,11.5,80,0.00,CLR,OVC,0.00,WeatherDisplay:10.37,2013-06-03 05:04:00,
2013-06-03 01:08:00,69.4,63.3,29.73,SSE,155,10.9,13.8,81,0.00,CLR,OVC,0.00,WeatherDisplay:10.37,2013-06-03 05:08:00,
2013-06-03 01:09:00,69.2,63.1,29.73,SSE,158,10.5,13.8,81,0.00,CLR,OVC,0.00,WeatherDisplay:10.37,2013-06-03 05:09:00,
2013-06-03 01:14:00,68.7,63.0,29.73,SSE,160,9.2,11.5,82,0.00,CLR,OVC,0.00,WeatherDisplay:10.37,2013-06-03 05:14:00,
2013-06-03 01:19:00,68.7,63.0,29.73,South,190,8.2,13.8,82,0.00,CLR,OVC,0.00,WeatherDisplay:10.37,2013-06-03 05:19:00,
2013-06-03 01:20:00,68.7,63.0,29.73,South,174,8.0,14.0,82,0.00,CLR,OVC,0.00,WeatherDisplay:10.37,2013-06-03 05:20:00,
2013-06-03 01:24:00,68.6,62.9,29.73,SSW,195,6.6,11.0,82,0.00,CLR,OVC,0.00,WeatherDisplay:10.37,2013-06-03 05:24:00,
2013-06-03 01:25:00,68.6,62.9,29.74,South,180,7.8,11.5,82,0.00,CLR,OVC,0.00,WeatherDisplay:10.37,2013-06-03 05:25:00,
2013-06-03 01:29:00,68.4,63.0,29.74,SW,214,6.6,10.4,83,0.00,CLR,OVC,0.00,WeatherDisplay:10.37,2013-06-03 05:29:00,
2013-06-03 01:30:00,68.4,63.0,29.74,SW,214,5.6,10.4,83,0.00,CLR,OVC,0.00,WeatherDisplay:10.37,2013-06-03 05:30:00,
2013-06-03 01:34:00,67.9,62.9,29.74,SSW,204,5.7,8.1,84,0.00,CLR,OVC,0.00,WeatherDisplay:10.37,2013-06-03 05:34:00,
2013-06-03 01:35:00,67.7,62.7,29.74,South,181,5.9,7.0,84,0.00,CLR,OVC,0.00,WeatherDisplay:10.37,2013-06-03 05:35:00,
2013-06-03 01:36:00,67.6,62.6,29.74,South,174,6.2,8.1,84,0.00,CLR,OVC,0.00,WeatherDisplay:10.37,2013-06-03 05:36:00,
2013-06-03 01:39:00,67.4,62.7,29.74,South,189,6.5,12.7,85,0.00,CLR,OVC,0.00,WeatherDisplay:10.37,2013-06-03 05:39:00,
2013-06-03 01:40:00,67.4,62.7,29.74,South,172,6.3,9.2,85,0.00,CLR,OVC,0.00,WeatherDisplay:10.37,2013-06-03 05:40:00,
2013-06-03 01:41:00,67.4,62.7,29.74,South,182,7.6,12.7,85,0.00,CLR,OVC,0.00,WeatherDisplay:10.37,2013-06-03 05:41:00,
2013-06-03 01:44:00,67.7,62.7,29.74,SE,146,8.6,11.5,84,0.00,CLR,OVC,0.00,WeatherDisplay:10.37,2013-06-03 05:44:00,
2013-06-03 01:45:00,67.7,62.7,29.74,SE,146,8.6,11.5,84,0.00,CLR,OVC,0.00,WeatherDisplay:10.37,2013-06-03 05:45:00,
2013-06-03 01:46:00,67.8,62.8,29.74,South,179,8.8,11.5,84,0.00,CLR,OVC,0.00,WeatherDisplay:10.37,2013-06-03 05:46:00,
2013-06-03 01:47:00,67.8,62.8,29.74,South,182,7.7,11.5,84,0.00,CLR,OVC,0.00,WeatherDisplay:10.37,2013-06-03 05:47:00,
2013-06-03 01:50:00,68.1,62.7,29.74,South,184,11.9,17.3,83,0.00,CLR,OVC,0.00,WeatherDisplay:10.37,2013-06-03 05:50:00,
2013-06-03 01:52:00,68.4,63.0,29.74,SSE,165,7.5,10.4,83,0.00,CLR,OVC,0.00,WeatherDisplay:10.37,2013-06-03 05:52:00,
2013-06-03 01:55:00,68.5,62.8,29.74,South,185,9.9,13.8,82,0.00,CLR,OVC,0.00,WeatherDisplay:10.37,2013-06-03 05:55:00,
2013-06-03 01:56:00,68.6,62.9,29.74,SSW,200,10.5,16.1,82,0.00,CLR,OVC,0.00,WeatherDisplay:10.37,2013-06-03 05:56:00,
2013-06-03 01:57:00,68.5,62.8,29.74,SSW,207,8.7,12.7,82,0.00,CLR,OVC,0.00,WeatherDisplay:10.37,2013-06-03 05:57:00,
2013-06-03 02:00:00,68.6,62.9,29.74,SSW,192,8.5,12.7,82,0.00,CLR,OVC,0.00,WeatherDisplay:10.37,2013-06-03 06:00:00,
2013-06-03 02:01:00,68.7,63.0,29.74,SSW,192,8.3,11.5,82,0.00,CLR,OVC,0.00,WeatherDisplay:10.37,2013-06-03 06:01:00,
2013-06-03 02:02:00,68.6,62.9,29.74,SSW,205,5.9,8.1,82,0.00,CLR,OVC,0.00,WeatherDisplay:10.37,2013-06-03 06:02:00,
2013-06-03 02:05:00,68.5,62.8,29.75,SSE,152,6.4,11.5,82,0.00,CLR,OVC,0.00,WeatherDisplay:10.37,2013-06-03 06:05:00,
2013-06-03 02:06:00,68.5,62.8,29.74,South,187,7.1,11.5,82,0.00,CLR,OVC,0.00,WeatherDisplay:10.37,2013-06-03 06:06:00,
2013-06-03 02:07:00,68.5,62.8,29.75,SSE,168,8.2,10.4,82,0.00,CLR,OVC,0.00,WeatherDisplay:10.37,2013-06-03 06:07:00,
2013-06-03 02:10:00,68.4,62.7,29.75,South,176,5.3,9.2,82,0.00,CLR,OVC,0.00,WeatherDisplay:10.37,2013-06-03 06:10:00,
2013-06-03 02:11:00,68.5,63.1,29.75,South,176,5.0,8.1,83,0.00,CLR,OVC,0.00,WeatherDisplay:10.37,2013-06-03 06:11:00,
2013-06-03 02:12:00,68.4,63.0,29.74,SSW,195,6.1,11.5,83,0.00,CLR,OVC,0.00,WeatherDisplay:10.37,2013-06-03 06:12:00,
2013-06-03 02:13:00,68.4,62.7,29.75,SSE,168,4.9,9.2,82,0.00,CLR,OVC,0.00,WeatherDisplay:10.37,2013-06-03 06:13:00,
2013-06-03 02:15:00,68.3,62.9,29.74,South,171,4.8,6.9,83,0.00,CLR,OVC,0.00,WeatherDisplay:10.37,2013-06-03 06:15:00,
2013-06-03 02:16:00,68.3,62.9,29.74,South,171,4.9,6.9,83,0.00,CLR,OVC,0.00,WeatherDisplay:10.37,2013-06-03 06:16:00,
2013-06-03 02:17:00,68.3,62.9,29.74,SSW,196,5.4,9.2,83,0.00,CLR,OVC,0.00,WeatherDisplay:10.37,2013-06-03 06:17:00,
2013-06-03 02:18:00,68.2,62.8,29.75,SSW,195,5.5,8.1,83,0.00,CLR,OVC,0.00,WeatherDisplay:10.37,2013-06-03 06:18:00,
2013-06-03 02:20:00,68.1,62.7,29.75,SSW,195,5.6,11.5,83,0.00,CLR,OVC,0.00,WeatherDisplay:10.37,2013-06-03 06:20:00,
2013-06-03 02:21:00,68.1,62.7,29.75,SSW,196,4.1,9.2,83,0.00,CLR,OVC,0.00,WeatherDisplay:10.37,2013-06-03 06:21:00,
2013-06-03 02:22:00,68.1,62.7,29.75,South,181,5.5,9.2,83,0.00,CLR,OVC,0.00,WeatherDisplay:10.37,2013-06-03 06:22:00,
2013-06-03 02:23:00,68.0,63.0,29.75,SSW,201,6.1,8.1,84,0.00,CLR,OVC,0.00,WeatherDisplay:10.37,2013-06-03 06:23:00,
2013-06-03 02:25:00,68.0,63.0,29.75,South,185,3.8,6.0,84,0.00,CLR,OVC,0.00,WeatherDisplay:10.37,2013-06-03 06:25:00,
2013-06-03 02:26:00,68.0,63.0,29.75,South,184,4.6,6.0,84,0.00,CLR,OVC,0.00,WeatherDisplay:10.37,2013-06-03 06:26:00,
2013-06-03 02:27:00,67.9,62.9,29.75,SSW,193,5.9,10.4,84,0.00,CLR,OVC,0.00,WeatherDisplay:10.37,2013-06-03 06:27:00,
2013-06-03 02:28:00,67.8,62.8,29.75,South,179,6.1,10.4,84,0.00,CLR,OVC,0.00,WeatherDisplay:10.37,2013-06-03 06:28:00,
2013-06-03 02:30:00,67.8,62.8,29.74,South,179,7.3,11.5,84,0.00,CLR,OVC,0.00,WeatherDisplay:10.37,2013-06-03 06:30:00,
2013-06-03 02:32:00,67.8,62.8,29.75,South,188,7.5,11.5,84,0.00,CLR,OVC,0.00,WeatherDisplay:10.37,2013-06-03 06:32:00,
2013-06-03 02:33:00,67.8,63.1,29.75,SSW,211,8.0,11.5,85,0.00,CLR,OVC,0.00,WeatherDisplay:10.37,2013-06-03 06:33:00,
2013-06-03 02:34:00,67.8,63.1,29.75,SSW,202,6.4,9.2,85,0.00,CLR,OVC,0.00,WeatherDisplay:10.37,2013-06-03 06:34:00,
2013-06-03 02:36:00,67.8,63.1,29.75,SW,224,4.6,10.4,85,0.00,CLR,OVC,0.00,WeatherDisplay:10.37,2013-06-03 06:36:00,
2013-06-03 02:37:00,67.7,63.0,29.75,SSW,205,5.0,7.0,85,0.00,CLR,OVC,0.00,WeatherDisplay:10.37,2013-06-03 06:37:00,
2013-06-03 02:38:00,67.7,63.0,29.75,South,189,5.6,8.1,85,0.00,CLR,OVC,0.00,WeatherDisplay:10.37,2013-06-03 06:38:00,
2013-06-03 02:39:00,67.7,63.0,29.75,SSW,204,6.5,8.1,85,0.00,CLR,OVC,0.00,WeatherDisplay:10.37,2013-06-03 06:39:00,
2013-06-03 02:41:00,67.6,62.9,29.75,South,174,5.3,6.9,85,0.00,CLR,OVC,0.00,WeatherDisplay:10.37,2013-06-03 06:41:00,
2013-06-03 02:42:00,67.6,62.9,29.75,South,180,5.5,6.9,85,0.00,CLR,OVC,0.00,WeatherDisplay:10.37,2013-06-03 06:42:00,
2013-06-03 02:43:00,67.6,62.9,29.75,SSW,198,6.0,8.1,85,0.00,CLR,OVC,0.00,WeatherDisplay:10.37,2013-06-03 06:43:00,
2013-06-03 02:45:00,67.5,62.8,29.75,SSW,202,8.0,10.4,85,0.00,CLR,OVC,0.00,WeatherDisplay:10.37,2013-06-03 06:45:00,
2013-06-03 02:47:00,67.5,62.8,29.75,SSW,195,6.2,8.1,85,0.00,CLR,OVC,0.00,WeatherDisplay:10.37,2013-06-03 06:47:00,
2013-06-03 02:48:00,67.4,62.7,29.75,South,185,6.9,9.2,85,0.00,CLR,OVC,0.00,WeatherDisplay:10.37,2013-06-03 06:48:00,
2013-06-03 02:49:00,67.4,62.7,29.75,SW,217,6.6,9.2,85,0.00,CLR,OVC,0.00,WeatherDisplay:10.37,2013-06-03 06:49:00,
2013-06-03 02:50:00,67.4,63.1,29.75,SSW,203,8.3,11.5,86,0.00,CLR,OVC,0.00,WeatherDisplay:10.37,2013-06-03 06:50:00,
2013-06-03 02:52:00,67.3,63.0,29.75,SSW,211,6.3,9.2,86,0.00,CLR,OVC,0.00,WeatherDisplay:10.37,2013-06-03 06:52:00,
2013-06-03 02:53:00,67.3,62.6,29.75,SW,215,6.8,9.2,85,0.00,CLR,OVC,0.00,WeatherDisplay:10.37,2013-06-03 06:53:00,
2013-06-03 02:54:00,67.3,63.0,29.75,SW,215,7.9,11.5,86,0.00,CLR,OVC,0.00,WeatherDisplay:10.37,2013-06-03 06:54:00,
2013-06-03 02:55:00,67.3,63.0,29.75,South,191,5.3,8.1,86,0.00,CLR,OVC,0.00,WeatherDisplay:10.37,2013-06-03 06:55:00,
2013-06-03 02:57:00,67.1,62.4,29.75,SSW,202,8.5,10.4,85,0.00,CLR,OVC,0.00,WeatherDisplay:10.37,2013-06-03 06:57:00,
2013-06-03 02:58:00,67.2,62.9,29.75,SSW,212,9.1,11.5,86,0.00,CLR,OVC,0.00,WeatherDisplay:10.37,2013-06-03 06:58:00,
2013-06-03 02:59:00,67.2,62.5,29.75,SSW,211,7.1,11.5,85,0.00,CLR,OVC,0.00,WeatherDisplay:10.37,2013-06-03 06:59:00,
2013-06-03 03:00:00,67.2,62.9,29.75,SW,215,5.9,8.1,86,0.00,CLR,OVC,0.00,WeatherDisplay:10.37,2013-06-03 07:00:00,
2013-06-03 03:02:00,67.2,62.9,29.75,SSW,193,6.4,9.2,86,0.00,CLR,OVC,0.00,WeatherDisplay:10.37,2013-06-03 07:02:00,
2013-06-03 03:03:00,67.2,62.9,29.75,SSW,203,6.2,9.2,86,0.00,CLR,OVC,0.00,WeatherDisplay:10.37,2013-06-03 07:03:00,
2013-06-03 03:04:00,67.3,63.0,29.74,SW,215,5.8,9.2,86,0.00,CLR,OVC,0.00,WeatherDisplay:10.37,2013-06-03 07:04:00,
2013-06-03 03:05:00,67.2,62.5,29.74,SSW,212,6.2,7.0,85,0.00,CLR,OVC,0.00,WeatherDisplay:10.37,2013-06-03 07:05:00,
2013-06-03 03:07:00,67.1,62.8,29.74,SSW,205,7.4,11.5,86,0.00,CLR,OVC,0.00,WeatherDisplay:10.37,2013-06-03 07:07:00,
2013-06-03 03:08:00,67.2,62.9,29.74,SW,217,4.8,11.5,86,0.00,CLR,OVC,0.00,WeatherDisplay:10.37,2013-06-03 07:08:00,
2013-06-03 03:09:00,67.2,62.5,29.74,SW,217,3.8,8.1,85,0.00,CLR,OVC,0.00,WeatherDisplay:10.37,2013-06-03 07:09:00,
2013-06-03 03:10:00,67.2,62.8,29.74,SSW,210,5.0,12.0,86,0.00,CLR,OVC,0.00,WeatherDisplay:10.37,2013-06-03 07:10:00,
2013-06-03 03:11:00,67.1,62.8,29.74,SW,216,5.0,6.9,86,0.00,CLR,OVC,0.00,WeatherDisplay:10.37,2013-06-03 07:11:00,
2013-06-03 03:12:00,67.1,62.8,29.74,SW,218,6.0,9.2,86,0.00,CLR,OVC,0.00,WeatherDisplay:10.37,2013-06-03 07:12:00,
2013-06-03 03:13:00,67.0,62.7,29.74,South,176,4.6,6.9,86,0.00,CLR,OVC,0.00,WeatherDisplay:10.37,2013-06-03 07:13:00,
2013-06-03 03:14:00,67.0,62.7,29.75,SW,222,9.6,10.0,86,0.00,CLR,OVC,0.00,WeatherDisplay:10.37,2013-06-03 07:14:00,
2013-06-03 03:15:00,67.0,62.7,29.74,SW,230,10.6,15.0,86,0.00,CLR,OVC,0.00,WeatherDisplay:10.37,2013-06-03 07:15:00,
2013-06-03 03:16:00,67.0,62.7,29.74,SW,217,8.0,11.5,86,0.00,CLR,OVC,0.00,WeatherDisplay:10.37,2013-06-03 07:16:00,
2013-06-03 03:18:00,67.1,62.8,29.74,SW,236,7.5,10.4,86,0.00,CLR,OVC,0.00,WeatherDisplay:10.37,2013-06-03 07:18:00,
2013-06-03 03:19:00,67.1,62.8,29.74,SW,230,7.7,10.4,86,0.00,CLR,OVC,0.00,WeatherDisplay:10.37,2013-06-03 07:19:00,
2013-06-03 03:20:00,67.1,62.8,29.74,SSW,213,6.1,9.2,86,0.00,CLR,OVC,0.00,WeatherDisplay:10.37,2013-06-03 07:20:00,
2013-06-03 03:22:00,67.1,62.4,29.74,SW,224,5.2,8.1,85,0.00,CLR,OVC,0.00,WeatherDisplay:10.37,2013-06-03 07:22:00,
2013-06-03 03:24:00,67.1,62.4,29.74,SW,229,4.4,6.9,85,0.00,CLR,OVC,0.00,WeatherDisplay:10.37,2013-06-03 07:24:00,
2013-06-03 03:25:00,67.1,62.4,29.74,SW,229,4.2,5.8,85,0.00,CLR,OVC,0.00,WeatherDisplay:10.37,2013-06-03 07:25:00,
2013-06-03 03:27:00,67.1,62.4,29.74,SW,229,4.0,4.6,85,0.00,CLR,OVC,0.00,WeatherDisplay:10.37,2013-06-03 07:27:00,
2013-06-03 03:29:00,67.1,62.4,29.74,SW,229,4.7,5.8,85,0.00,CLR,OVC,0.00,WeatherDisplay:10.37,2013-06-03 07:29:00,
2013-06-03 03:30:00,67.1,62.4,29.74,SW,229,4.4,5.8,85,0.00,CLR,OVC,0.00,WeatherDisplay:10.37,2013-06-03 07:30:00,
2013-06-03 03:31:00,67.0,62.3,29.74,SW,229,3.5,5.0,85,0.00,CLR,OVC,0.00,WeatherDisplay:10.37,2013-06-03 07:31:00,
2013-06-03 03:32:00,67.0,62.7,29.74,SW,229,2.1,4.6,86,0.00,CLR,OVC,0.00,WeatherDisplay:10.37,2013-06-03 07:32:00,
2013-06-03 03:34:00,66.9,62.6,29.74,SW,229,3.8,6.9,86,0.00,CLR,OVC,0.00,WeatherDisplay:10.37,2013-06-03 07:34:00,
2013-06-03 03:35:00,66.9,62.6,29.74,SW,229,2.8,5.8,86,0.00,CLR,OVC,0.00,WeatherDisplay:10.37,2013-06-03 07:35:00,
2013-06-03 03:36:00,66.8,62.5,29.74,SW,229,2.2,3.5,86,0.00,CLR,OVC,0.00,WeatherDisplay:10.37,2013-06-03 07:36:00,
2013-06-03 03:38:00,66.8,62.5,29.74,SW,229,2.2,4.0,86,0.00,CLR,OVC,0.00,WeatherDisplay:10.37,2013-06-03 07:38:00,
2013-06-03 03:39:00,66.8,62.5,29.74,SW,229,1.8,3.5,86,0.00,CLR,OVC,0.00,WeatherDisplay:10.37,2013-06-03 07:39:00,
2013-06-03 03:40:00,66.8,62.5,29.74,SW,229,1.5,3.5,86,0.00,CLR,OVC,0.00,WeatherDisplay:10.37,2013-06-03 07:40:00,
2013-06-03 03:42:00,66.7,62.4,29.74,SW,229,0.7,2.3,86,0.00,CLR,OVC,0.00,WeatherDisplay:10.37,2013-06-03 07:42:00,
2013-06-03 03:44:00,66.7,62.4,29.74,SW,229,1.6,3.5,86,0.00,CLR,OVC,0.00,WeatherDisplay:10.37,2013-06-03 07:44:00,
2013-06-03 03:45:00,66.7,62.7,29.74,SW,229,1.2,2.3,87,0.00,CLR,OVC,0.00,WeatherDisplay:10.37,2013-06-03 07:45:00,
2013-06-03 03:47:00,66.7,62.7,29.74,SW,229,1.0,2.3,87,0.00,CLR,OVC,0.00,WeatherDisplay:10.37,2013-06-03 07:47:00,
2013-06-03 03:49:00,66.6,62.6,29.74,SW,229,0.0,1.0,87,0.00,CLR,OVC,0.00,WeatherDisplay:10.37,2013-06-03 07:49:00,
2013-06-03 03:50:00,66.6,62.6,29.74,SW,229,1.5,3.5,87,0.00,CLR,OVC,0.00,WeatherDisplay:10.37,2013-06-03 07:50:00,
2013-06-03 03:52:00,66.6,62.9,29.74,South,175,2.3,3.5,88,0.00,CLR,OVC,0.00,WeatherDisplay:10.37,2013-06-03 07:52:00,
2013-06-03 03:54:00,66.5,62.8,29.74,South,176,3.2,4.0,88,0.00,CLR,OVC,0.00,WeatherDisplay:10.37,2013-06-03 07:54:00,
2013-06-03 03:55:00,66.5,62.8,29.74,SSE,161,4.5,6.9,88,0.00,CLR,OVC,0.00,WeatherDisplay:10.37,2013-06-03 07:55:00,
2013-06-03 03:57:00,66.3,62.6,29.74,SSE,162,4.0,5.8,88,0.00,CLR,OVC,0.00,WeatherDisplay:10.37,2013-06-03 07:57:00,
2013-06-03 03:59:00,66.3,62.6,29.74,SSE,162,4.4,4.6,88,0.00,CLR,OVC,0.00,WeatherDisplay:10.37,2013-06-03 07:59:00,
2013-06-03 04:00:00,66.3,62.6,29.74,SSE,162,3.4,4.6,88,0.00,CLR,OVC,0.00,WeatherDisplay:10.37,2013-06-03 08:00:00,
2013-06-03 04:03:00,66.3,62.6,29.74,SSE,161,4.6,6.9,88,0.00,CLR,OVC,0.00,WeatherDisplay:10.37,2013-06-03 08:03:00,
2013-06-03 04:04:00,66.3,62.6,29.74,SSE,162,4.2,5.8,88,0.00,CLR,OVC,0.00,WeatherDisplay:10.37,2013-06-03 08:04:00,
2013-06-03 04:05:00,66.2,62.5,29.74,SSE,162,4.9,8.1,88,0.00,CLR,OVC,0.00,WeatherDisplay:10.37,2013-06-03 08:05:00,
2013-06-03 04:06:00,66.2,62.5,29.74,SSE,162,4.7,8.1,88,0.00,CLR,OVC,0.00,WeatherDisplay:10.37,2013-06-03 08:06:00,
2013-06-03 04:08:00,66.4,62.7,29.74,SSE,168,4.9,6.9,88,0.00,CLR,OVC,0.00,WeatherDisplay:10.37,2013-06-03 08:08:00,
2013-06-03 04:09:00,66.4,62.7,29.74,SSE,168,5.1,5.8,88,0.00,CLR,OVC,0.00,WeatherDisplay:10.37,2013-06-03 08:09:00,
2013-06-03 04:10:00,66.4,62.7,29.74,SSE,163,4.3,6.9,88,0.00,CLR,OVC,0.00,WeatherDisplay:10.37,2013-06-03 08:10:00,
2013-06-03 04:11:00,66.4,62.7,29.74,SSE,163,3.6,5.8,88,0.00,CLR,OVC,0.00,WeatherDisplay:10.37,2013-06-03 08:11:00,
2013-06-03 04:14:00,66.5,62.5,29.74,SSE,163,2.2,6.0,87,0.00,CLR,OVC,0.00,WeatherDisplay:10.37,2013-06-03 08:14:00,
2013-06-03 04:15:00,66.5,62.5,29.74,SSE,163,3.6,6.9,87,0.00,CLR,OVC,0.00,WeatherDisplay:10.37,2013-06-03 08:15:00,
2013-06-03 04:16:00,66.5,62.5,29.75,SSE,163,3.3,4.6,87,0.00,CLR,OVC,0.00,WeatherDisplay:10.37,2013-06-03 08:16:00,
2013-06-03 04:17:00,66.5,62.5,29.74,SSE,163,3.5,5.0,87,0.00,CLR,OVC,0.00,WeatherDisplay:10.37,2013-06-03 08:17:00,
2013-06-03 04:19:00,66.4,62.4,29.75,SSE,164,3.1,4.6,87,0.00,CLR,OVC,0.00,WeatherDisplay:10.37,2013-06-03 08:19:00,
2013-06-03 04:20:00,66.4,62.4,29.75,SSE,163,2.1,3.5,87,0.00,CLR,OVC,0.00,WeatherDisplay:10.37,2013-06-03 08:20:00,
2013-06-03 04:21:00,66.4,62.4,29.75,SSE,163,0.5,3.5,87,0.00,CLR,OVC,0.00,WeatherDisplay:10.37,2013-06-03 08:21:00,
2013-06-03 04:22:00,66.4,62.4,29.75,SSE,163,1.4,3.5,87,0.00,CLR,OVC,0.00,WeatherDisplay:10.37,2013-06-03 08:22:00,
2013-06-03 04:24:00,66.3,62.3,29.75,SSE,163,2.9,4.6,87,0.00,CLR,OVC,0.00,WeatherDisplay:10.37,2013-06-03 08:24:00,
2013-06-03 04:25:00,66.2,62.2,29.75,SSE,163,1.0,3.5,87,0.00,CLR,OVC,0.00,WeatherDisplay:10.37,2013-06-03 08:25:00,
2013-06-03 04:27:00,66.2,62.2,29.75,SSE,163,2.5,3.5,87,0.00,CLR,OVC,0.00,WeatherDisplay:10.37,2013-06-03 08:27:00,
2013-06-03 04:29:00,66.0,62.0,29.75,South,191,4.7,8.0,87,0.00,CLR,OVC,0.00,WeatherDisplay:10.37,2013-06-03 08:29:00,
2013-06-03 04:31:00,66.0,62.0,29.75,SSW,201,4.9,8.1,87,0.00,CLR,OVC,0.00,WeatherDisplay:10.37,2013-06-03 08:31:00,
2013-06-03 04:32:00,66.0,62.0,29.75,SSW,205,4.2,8.1,87,0.00,CLR,OVC,0.00,WeatherDisplay:10.37,2013-06-03 08:32:00,
2013-06-03 04:34:00,65.9,61.9,29.75,SSW,205,3.3,4.6,87,0.00,CLR,OVC,0.00,WeatherDisplay:10.37,2013-06-03 08:34:00,
2013-06-03 04:35:00,65.9,61.9,29.75,SSW,205,3.0,4.6,87,0.00,CLR,OVC,0.00,WeatherDisplay:10.37,2013-06-03 08:35:00,
2013-06-03 04:36:00,65.8,61.8,29.75,SSW,205,2.8,4.0,87,0.00,CLR,OVC,0.00,WeatherDisplay:10.37,2013-06-03 08:36:00,
2013-06-03 04:37:00,65.7,61.7,29.75,SSW,205,3.6,5.0,87,0.00,CLR,OVC,0.00,WeatherDisplay:10.37,2013-06-03 08:37:00,
2013-06-03 04:39:00,65.6,61.6,29.75,SSW,205,4.1,4.6,87,0.00,CLR,OVC,0.00,WeatherDisplay:10.37,2013-06-03 08:39:00,
2013-06-03 04:40:00,65.6,61.6,29.75,SSW,205,4.1,7.0,87,0.00,CLR,OVC,0.00,WeatherDisplay:10.37,2013-06-03 08:40:00,
2013-06-03 04:41:00,65.5,61.9,29.75,SW,219,5.4,6.9,88,0.00,CLR,OVC,0.00,WeatherDisplay:10.37,2013-06-03 08:41:00,
2013-06-03 04:42:00,65.5,61.9,29.75,SW,214,4.7,6.9,88,0.00,CLR,OVC,0.00,WeatherDisplay:10.37,2013-06-03 08:42:00,
2013-06-03 04:45:00,65.5,61.9,29.75,SSW,207,3.8,5.0,88,0.00,CLR,OVC,0.00,WeatherDisplay:10.37,2013-06-03 08:45:00,
2013-06-03 04:46:00,65.5,61.9,29.75,SSW,192,4.8,6.0,88,0.00,CLR,OVC,0.00,WeatherDisplay:10.37,2013-06-03 08:46:00,
2013-06-03 04:47:00,65.5,61.9,29.75,South,177,5.3,6.9,88,0.00,CLR,OVC,0.00,WeatherDisplay:10.37,2013-06-03 08:47:00,
2013-06-03 04:48:00,65.5,61.9,29.75,SSW,212,4.4,6.9,88,0.00,CLR,OVC,0.00,WeatherDisplay:10.37,2013-06-03 08:48:00,
2013-06-03 04:50:00,65.5,61.9,29.75,SW,216,7.0,10.4,88,0.00,CLR,OVC,0.00,WeatherDisplay:10.37,2013-06-03 08:50:00,
2013-06-03 04:51:00,65.6,61.9,29.75,SW,218,5.8,10.4,88,0.00,CLR,OVC,0.00,WeatherDisplay:10.37,2013-06-03 08:51:00,
2013-06-03 04:52:00,65.7,62.0,29.74,SW,218,3.9,6.9,88,0.00,CLR,OVC,0.00,WeatherDisplay:10.37,2013-06-03 08:52:00,
2013-06-03 04:54:00,65.7,62.0,29.75,SW,218,2.9,4.6,88,0.00,CLR,OVC,0.00,WeatherDisplay:10.37,2013-06-03 08:54:00,
2013-06-03 04:55:00,65.7,62.0,29.75,SW,218,3.1,4.6,88,0.00,CLR,OVC,0.00,WeatherDisplay:10.37,2013-06-03 08:55:00,
2013-06-03 04:56:00,65.7,62.0,29.75,SW,218,2.5,4.6,88,0.00,CLR,OVC,0.00,WeatherDisplay:10.37,2013-06-03 08:56:00,
2013-06-03 04:57:00,65.7,62.0,29.75,SW,218,2.6,4.6,88,0.00,CLR,OVC,0.00,WeatherDisplay:10.37,2013-06-03 08:57:00,
2013-06-03 04:59:00,65.6,61.9,29.74,SE,132,1.8,5.0,88,0.00,CLR,OVC,0.00,WeatherDisplay:10.37,2013-06-03 08:59:00,
2013-06-03 05:01:00,65.6,61.9,29.75,SE,135,3.7,4.6,88,0.00,CLR,OVC,0.00,WeatherDisplay:10.37,2013-06-03 09:01:00,
2013-06-03 05:02:00,65.5,61.9,29.75,SE,135,1.2,3.5,88,0.00,CLR,OVC,0.00,WeatherDisplay:10.37,2013-06-03 09:02:00,
2013-06-03 05:03:00,65.5,61.9,29.74,SE,138,3.4,5.0,88,0.00,CLR,OVC,0.00,WeatherDisplay:10.37,2013-06-03 09:03:00,
2013-06-03 05:05:00,65.5,61.9,29.74,SE,138,0.1,3.5,88,0.00,CLR,OVC,0.00,WeatherDisplay:10.37,2013-06-03 09:05:00,
2013-06-03 05:06:00,65.4,61.4,29.74,SE,138,0.0,1.2,87,0.00,CLR,OVC,0.00,WeatherDisplay:10.37,2013-06-03 09:06:00,
2013-06-03 05:07:00,65.4,61.8,29.74,SE,138,0.0,1.2,88,0.00,CLR,OVC,0.00,WeatherDisplay:10.37,2013-06-03 09:07:00,
2013-06-03 05:08:00,65.4,61.8,29.75,SE,138,0.7,2.0,88,0.00,CLR,OVC,0.00,WeatherDisplay:10.37,2013-06-03 09:08:00,
2013-06-03 05:10:00,65.4,61.8,29.74,SE,139,0.5,2.3,88,0.00,CLR,OVC,0.00,WeatherDisplay:10.37,2013-06-03 09:10:00,
2013-06-03 05:12:00,65.3,61.7,29.74,SE,137,1.6,3.5,88,0.00,CLR,OVC,0.00,WeatherDisplay:10.37,2013-06-03 09:12:00,
2013-06-03 05:13:00,65.2,61.6,29.74,SE,138,0.9,2.3,88,0.00,CLR,OVC,0.00,WeatherDisplay:10.37,2013-06-03 09:13:00,
2013-06-03 05:15:00,65.1,61.5,29.74,SE,138,0.3,2.3,88,0.00,CLR,OVC,0.00,WeatherDisplay:10.37,2013-06-03 09:15:00,
2013-06-03 05:17:00,65.0,61.4,29.74,SE,134,0.8,2.3,88,0.00,CLR,OVC,0.00,WeatherDisplay:10.37,2013-06-03 09:17:00,
2013-06-03 05:18:00,65.0,61.4,29.74,SE,134,0.3,2.3,88,0.00,CLR,OVC,0.00,WeatherDisplay:10.37,2013-06-03 09:18:00,
2013-06-03 05:19:00,65.0,61.7,29.74,SE,134,0.0,1.2,89,0.00,CLR,OVC,0.00,WeatherDisplay:10.37,2013-06-03 09:19:00,
2013-06-03 05:21:00,64.9,61.6,29.74,SE,134,0.0,0.0,89,0.00,CLR,OVC,0.00,WeatherDisplay:10.37,2013-06-03 09:21:00,
2013-06-03 05:22:00,64.8,61.5,29.74,SE,134,0.7,2.0,89,0.00,CLR,OVC,0.00,WeatherDisplay:10.37,2013-06-03 09:22:00,
2013-06-03 05:23:00,64.8,61.5,29.74,SE,134,1.5,2.3,89,0.00,CLR,OVC,0.00,WeatherDisplay:10.37,2013-06-03 09:23:00,
2013-06-03 05:24:00,64.8,61.5,29.74,SE,134,1.4,3.5,89,0.00,CLR,OVC,0.00,WeatherDisplay:10.37,2013-06-03 09:24:00,
2013-06-03 05:26:00,64.7,61.4,29.74,SE,134,3.1,4.6,89,0.00,CLR,OVC,0.00,WeatherDisplay:10.37,2013-06-03 09:26:00,
2013-06-03 05:27:00,64.7,61.4,29.74,SE,134,3.2,4.6,89,0.00,CLR,OVC,0.00,WeatherDisplay:10.37,2013-06-03 09:27:00,
2013-06-03 05:28:00,64.7,61.4,29.74,SE,134,3.8,4.6,89,0.00,CLR,OVC,0.00,WeatherDisplay:10.37,2013-06-03 09:28:00,
2013-06-03 05:29:00,64.7,61.4,29.74,SE,135,4.5,6.0,89,0.00,CLR,OVC,0.00,WeatherDisplay:10.37,2013-06-03 09:29:00,
2013-06-03 05:32:00,64.6,61.3,29.74,SE,128,5.2,9.0,89,0.00,CLR,OVC,0.01,WeatherDisplay:10.37,2013-06-03 09:32:00,
2013-06-03 05:33:00,64.7,61.4,29.74,SSE,168,7.0,9.2,89,0.01,RA,OVC,0.01,WeatherDisplay:10.37,2013-06-03 09:33:00,
2013-06-03 05:34:00,64.7,61.4,29.74,SSE,162,5.3,9.2,89,0.01,RA,OVC,0.01,WeatherDisplay:10.37,2013-06-03 09:34:00,
2013-06-03 05:37:00,64.8,61.5,29.74,South,176,3.7,5.0,89,0.01,RA,OVC,0.01,WeatherDisplay:10.37,2013-06-03 09:37:00,
2013-06-03 05:38:00,64.8,61.5,29.74,South,176,3.4,4.6,89,0.01,RA,OVC,0.01,WeatherDisplay:10.37,2013-06-03 09:38:00,
2013-06-03 05:39:00,64.9,61.6,29.74,South,176,2.8,3.5,89,0.01,RA,OVC,0.01,WeatherDisplay:10.37,2013-06-03 09:39:00,
2013-06-03 05:40:00,64.9,61.6,29.74,South,176,2.9,3.5,89,0.01,RA,OVC,0.01,WeatherDisplay:10.37,2013-06-03 09:40:00,
2013-06-03 05:42:00,64.9,61.6,29.74,ESE,106,4.9,5.8,89,0.01,RA,OVC,0.01,WeatherDisplay:10.37,2013-06-03 09:42:00,
2013-06-03 05:43:00,65.0,61.4,29.74,ESE,110,3.6,5.8,88,0.01,,OVC,0.01,WeatherDisplay:10.37,2013-06-03 09:43:00,
2013-06-03 05:44:00,65.0,61.7,29.74,South,172,4.5,8.1,89,0.01,,OVC,0.01,WeatherDisplay:10.37,2013-06-03 09:44:00,
2013-06-03 05:45:00,65.0,61.7,29.74,South,177,6.3,10.4,89,0.01,CLR,OVC,0.01,WeatherDisplay:10.37,2013-06-03 09:45:00,
2013-06-03 05:47:00,65.1,61.8,29.74,SE,143,6.5,8.1,89,0.01,CLR,OVC,0.01,WeatherDisplay:10.37,2013-06-03 09:47:00,
2013-06-03 05:49:00,65.2,61.6,29.74,SE,139,5.7,7.0,88,0.01,CLR,OVC,0.01,WeatherDisplay:10.37,2013-06-03 09:49:00,
2013-06-03 05:50:00,65.3,62.0,29.74,SE,139,5.5,7.0,89,0.01,CLR,OVC,0.01,WeatherDisplay:10.37,2013-06-03 09:50:00,
2013-06-03 05:52:00,65.3,62.0,29.75,SE,137,3.6,5.8,89,0.01,CLR,OVC,0.01,WeatherDisplay:10.37,2013-06-03 09:52:00,
2013-06-03 05:54:00,65.3,61.7,29.74,SE,137,4.2,5.8,88,0.01,CLR,OVC,0.01,WeatherDisplay:10.37,2013-06-03 09:54:00,
2013-06-03 05:55:00,65.3,62.0,29.74,SE,137,3.7,4.6,89,0.01,CLR,OVC,0.01,WeatherDisplay:10.37,2013-06-03 09:55:00,
2013-06-03 05:57:00,65.2,61.6,29.74,South,175,5.3,10.4,88,0.01,CLR,OVC,0.01,WeatherDisplay:10.37,2013-06-03 09:57:00,
2013-06-03 05:59:00,65.2,61.9,29.74,South,174,3.2,4.6,89,0.01,CLR,OVC,0.01,WeatherDisplay:10.37,2013-06-03 09:59:00,
2013-06-03 06:00:00,65.2,61.9,29.74,SSW,194,4.8,9.2,89,0.01,CLR,OVC,0.01,WeatherDisplay:10.37,2013-06-03 10:00:00,
2013-06-03 06:03:00,65.2,61.6,29.74,SSW,203,4.9,7.0,88,0.01,CLR,OVC,0.01,WeatherDisplay:10.37,2013-06-03 10:03:00,
2013-06-03 06:04:00,65.3,62.0,29.74,SSW,209,3.6,8.1,89,0.01,CLR,OVC,0.01,WeatherDisplay:10.37,2013-06-03 10:04:00,
2013-06-03 06:05:00,65.3,62.0,29.74,South,183,3.6,6.0,89,0.01,CLR,OVC,0.01,WeatherDisplay:10.37,2013-06-03 10:05:00,
2013-06-03 06:08:00,65.5,61.9,29.74,South,175,6.2,10.4,88,0.01,CLR,OVC,0.01,WeatherDisplay:10.37,2013-06-03 10:08:00,
2013-06-03 06:10:00,65.6,61.9,29.74,SSE,160,2.8,5.8,88,0.01,CLR,OVC,0.01,WeatherDisplay:10.37,2013-06-03 10:10:00,
2013-06-03 06:11:00,65.6,61.9,29.74,SSE,160,2.3,3.5,88,0.01,CLR,OVC,0.01,WeatherDisplay:10.37,2013-06-03 10:11:00,
2013-06-03 06:13:00,65.7,61.7,29.74,SSE,160,3.8,4.6,87,0.01,CLR,OVC,0.01,WeatherDisplay:10.37,2013-06-03 10:13:00,
2013-06-03 06:15:00,65.7,62.0,29.74,SSE,160,3.9,5.0,88,0.01,CLR,OVC,0.01,WeatherDisplay:10.37,2013-06-03 10:15:00,
2013-06-03 06:16:00,65.7,62.0,29.74,SSE,160,3.8,5.8,88,0.01,CLR,OVC,0.01,WeatherDisplay:10.37,2013-06-03 10:16:00,
2013-06-03 06:17:00,65.7,62.0,29.74,SSW,209,4.5,4.6,88,0.01,CLR,OVC,0.01,WeatherDisplay:10.37,2013-06-03 10:17:00,
2013-06-03 06:18:00,65.7,61.7,29.74,SSW,194,5.0,11.0,87,0.01,CLR,OVC,0.01,WeatherDisplay:10.37,2013-06-03 10:18:00,
2013-06-03 06:20:00,65.8,61.8,29.74,South,187,5.7,9.2,87,0.01,CLR,OVC,0.01,WeatherDisplay:10.37,2013-06-03 10:20:00,
2013-06-03 06:21:00,65.8,61.8,29.74,South,189,6.4,9.2,87,0.01,CLR,OVC,0.01,WeatherDisplay:10.37,2013-06-03 10:21:00,
2013-06-03 06:22:00,65.8,61.8,29.74,South,183,5.6,9.2,87,0.01,CLR,OVC,0.01,WeatherDisplay:10.37,2013-06-03 10:22:00,
2013-06-03 06:23:00,65.8,61.8,29.74,South,186,5.4,9.2,87,0.01,CLR,OVC,0.01,WeatherDisplay:10.37,2013-06-03 10:23:00,
2013-06-03 06:25:00,65.9,61.6,29.74,South,184,7.8,10.4,86,0.01,CLR,OVC,0.01,WeatherDisplay:10.37,2013-06-03 10:25:00,
2013-06-03 06:26:00,65.9,61.6,29.74,SSW,192,7.7,10.4,86,0.01,CLR,OVC,0.01,WeatherDisplay:10.37,2013-06-03 10:26:00,
2013-06-03 06:27:00,66.0,61.7,29.74,SSE,161,6.2,10.4,86,0.01,CLR,OVC,0.01,WeatherDisplay:10.37,2013-06-03 10:27:00,
2013-06-03 06:28:00,66.0,61.7,29.74,South,187,4.6,8.1,86,0.01,CLR,OVC,0.01,WeatherDisplay:10.37,2013-06-03 10:28:00,
2013-06-03 06:29:00,66.0,61.7,29.74,South,181,5.0,8.1,86,0.01,CLR,OVC,0.01,WeatherDisplay:10.37,2013-06-03 10:29:00,
2013-06-03 06:31:00,66.2,61.9,29.74,South,180,3.7,5.8,86,0.01,CLR,OVC,0.01,WeatherDisplay:10.37,2013-06-03 10:31:00,
2013-06-03 06:32:00,66.2,61.9,29.74,SSW,192,3.6,4.6,86,0.01,CLR,OVC,0.01,WeatherDisplay:10.37,2013-06-03 10:32:00,
2013-06-03 06:33:00,66.2,61.9,29.74,SSW,192,3.6,4.6,86,0.01,CLR,OVC,0.01,WeatherDisplay:10.37,2013-06-03 10:33:00,
2013-06-03 06:34:00,66.2,61.9,29.74,SSW,200,5.6,10.4,86,0.00,CLR,OVC,0.01,WeatherDisplay:10.37,2013-06-03 10:34:00,
2013-06-03 06:36:00,66.2,61.6,29.74,SSW,199,5.5,10.4,85,0.00,CLR,OVC,0.01,WeatherDisplay:10.37,2013-06-03 10:36:00,
2013-06-03 06:38:00,66.2,61.6,29.74,SSW,213,6.5,11.5,85,0.00,CLR,OVC,0.01,WeatherDisplay:10.37,2013-06-03 10:38:00,
2013-06-03 06:39:00,66.2,61.6,29.74,SSW,204,5.0,6.9,85,0.00,CLR,OVC,0.01,WeatherDisplay:10.37,2013-06-03 10:39:00,
2013-06-03 06:40:00,66.2,61.9,29.74,SSW,201,5.6,8.1,86,0.00,CLR,OVC,0.01,WeatherDisplay:10.37,2013-06-03 10:40:00,
2013-06-03 06:42:00,66.2,61.6,29.74,SSW,209,6.8,9.2,85,0.00,CLR,OVC,0.01,WeatherDisplay:10.37,2013-06-03 10:42:00,
2013-06-03 06:43:00,66.2,61.6,29.74,SSE,163,4.6,6.9,85,0.00,CLR,OVC,0.01,WeatherDisplay:10.37,2013-06-03 10:43:00,
2013-06-03 06:44:00,66.2,61.9,29.74,SSE,163,3.5,5.8,86,0.00,CLR,OVC,0.01,WeatherDisplay:10.37,2013-06-03 10:44:00,
2013-06-03 06:45:00,66.3,62.0,29.74,SSE,163,3.8,5.8,86,0.00,CLR,OVC,0.01,WeatherDisplay:10.37,2013-06-03 10:45:00,
2013-06-03 06:47:00,66.3,62.0,29.74,South,181,5.3,9.2,86,0.00,CLR,OVC,0.01,WeatherDisplay:10.37,2013-06-03 10:47:00,
2013-06-03 06:48:00,66.3,62.0,29.74,SSW,201,4.8,6.9,86,0.00,CLR,OVC,0.01,WeatherDisplay:10.37,2013-06-03 10:48:00,
2013-06-03 06:49:00,66.3,62.0,29.74,SSW,211,5.7,7.0,86,0.00,CLR,OVC,0.01,WeatherDisplay:10.37,2013-06-03 10:49:00,
2013-06-03 06:50:00,66.4,61.8,29.74,SSW,212,5.2,6.9,85,0.00,CLR,OVC,0.01,WeatherDisplay:10.37,2013-06-03 10:50:00,
2013-06-03 06:52:00,66.5,62.2,29.74,SSW,208,4.4,5.8,86,0.00,CLR,OVC,0.01,WeatherDisplay:10.37,2013-06-03 10:52:00,
2013-06-03 06:53:00,66.5,62.2,29.74,SSW,208,3.0,5.8,86,0.00,CLR,OVC,0.01,WeatherDisplay:10.37,2013-06-03 10:53:00,
2013-06-03 06:54:00,66.5,62.2,29.74,SSW,208,1.8,3.5,86,0.00,CLR,OVC,0.01,WeatherDisplay:10.37,2013-06-03 10:54:00,
2013-06-03 06:55:00,66.6,62.3,29.74,SSW,194,2.8,4.6,86,0.00,CLR,OVC,0.01,WeatherDisplay:10.37,2013-06-03 10:55:00,
2013-06-03 06:58:00,66.7,62.4,29.74,South,180,1.3,5.8,86,0.00,CLR,OVC,0.01,WeatherDisplay:10.37,2013-06-03 10:58:00,
2013-06-03 06:59:00,66.8,62.5,29.74,South,181,1.0,3.5,86,0.00,CLR,OVC,0.01,WeatherDisplay:10.37,2013-06-03 10:59:00,
2013-06-03 07:00:00,66.8,62.5,29.75,South,181,2.8,4.0,86,0.00,CLR,OVC,0.01,WeatherDisplay:10.37,2013-06-03 11:00:00,
2013-06-03 07:03:00,67.0,63.0,29.75,SSW,203,4.4,6.9,87,0.00,CLR,OVC,0.01,WeatherDisplay:10.37,2013-06-03 11:03:00,
2013-06-03 07:04:00,67.0,62.7,29.75,SSW,205,2.9,6.0,86,0.00,CLR,OVC,0.01,WeatherDisplay:10.37,2013-06-03 11:04:00,
2013-06-03 07:06:00,67.1,63.1,29.75,SSW,210,4.5,5.8,87,0.00,CLR,OVC,0.01,WeatherDisplay:10.37,2013-06-03 11:06:00,
2013-06-03 07:08:00,67.3,63.0,29.75,SW,216,5.4,10.0,86,0.00,CLR,OVC,0.01,WeatherDisplay:10.37,2013-06-03 11:08:00,
2013-06-03 07:09:00,67.3,63.0,29.75,SSW,198,8.2,11.5,86,0.00,CLR,OVC,0.01,WeatherDisplay:10.37,2013-06-03 11:09:00,
2013-06-03 07:10:00,67.3,63.0,29.75,SSW,199,7.0,11.5,86,0.00,CLR,OVC,0.01,WeatherDisplay:10.37,2013-06-03 11:10:00,
2013-06-03 07:12:00,67.4,63.1,29.75,SSW,206,5.3,8.1,86,0.00,CLR,OVC,0.01,WeatherDisplay:10.37,2013-06-03 11:12:00,
2013-06-03 07:14:00,67.5,62.8,29.75,SSE,158,3.9,8.1,85,0.00,CLR,OVC,0.01,WeatherDisplay:10.37,2013-06-03 11:14:00,
2013-06-03 07:15:00,67.5,63.2,29.75,SSE,157,4.2,6.0,86,0.00,CLR,OVC,0.01,WeatherDisplay:10.37,2013-06-03 11:15:00,
2013-06-03 07:17:00,67.6,62.9,29.75,SSE,158,4.2,4.6,85,0.00,CLR,OVC,0.01,WeatherDisplay:10.37,2013-06-03 11:17:00,
2013-06-03 07:19:00,67.6,62.9,29.75,SW,227,4.5,6.9,85,0.00,CLR,OVC,0.01,WeatherDisplay:10.37,2013-06-03 11:19:00,
2013-06-03 07:20:00,67.7,63.0,29.75,SSW,195,4.3,6.9,85,0.00,CLR,OVC,0.01,WeatherDisplay:10.37,2013-06-03 11:20:00,
2013-06-03 07:22:00,67.8,63.5,29.75,South,183,4.5,7.0,86,0.00,CLR,OVC,0.01,WeatherDisplay:10.37,2013-06-03 11:22:00,
2013-06-03 07:24:00,67.9,63.6,29.75,SSW,198,6.2,11.5,86,0.00,CLR,OVC,0.01,WeatherDisplay:10.37,2013-06-03 11:24:00,
2013-06-03 07:25:00,68.0,63.3,29.75,SSW,194,6.9,11.5,85,0.00,CLR,OVC,0.01,WeatherDisplay:10.37,2013-06-03 11:25:00,
2013-06-03 07:27:00,68.0,63.3,29.75,South,180,4.7,11.5,85,0.00,CLR,OVC,0.01,WeatherDisplay:10.37,2013-06-03 11:27:00,
2013-06-03 07:29:00,68.1,63.4,29.75,SSE,165,5.7,8.0,85,0.00,CLR,OVC,0.01,WeatherDisplay:10.37,2013-06-03 11:29:00,
2013-06-03 07:30:00,68.2,63.5,29.75,SSE,158,6.4,8.1,85,0.00,CLR,OVC,0.01,WeatherDisplay:10.37,2013-06-03 11:30:00,
2013-06-03 07:32:00,68.3,63.6,29.75,SSW,198,6.0,8.1,85,0.00,CLR,OVC,0.01,WeatherDisplay:10.37,2013-06-03 11:32:00,
2013-06-03 07:34:00,68.3,63.6,29.75,South,178,6.1,9.0,85,0.00,CLR,OVC,0.01,WeatherDisplay:10.37,2013-06-03 11:34:00,
2013-06-03 07:35:00,68.3,63.6,29.75,South,178,8.0,10.4,85,0.00,CLR,OVC,0.01,WeatherDisplay:10.37,2013-06-03 11:35:00,
2013-06-03 07:37:00,68.4,63.7,29.75,SSW,202,7.2,10.4,85,0.00,CLR,OVC,0.01,WeatherDisplay:10.37,2013-06-03 11:37:00,
2013-06-03 07:39:00,68.4,63.7,29.75,South,189,4.8,8.0,85,0.00,CLR,OVC,0.01,WeatherDisplay:10.37,2013-06-03 11:39:00,
2013-06-03 07:40:00,68.5,63.8,29.75,SSW,203,6.4,9.2,85,0.00,CLR,OVC,0.01,WeatherDisplay:10.37,2013-06-03 11:40:00,
2013-06-03 07:41:00,68.5,63.8,29.75,South,186,6.0,9.2,85,0.00,CLR,OVC,0.01,WeatherDisplay:10.37,2013-06-03 11:41:00,
2013-06-03 07:42:00,68.5,63.8,29.75,SSW,205,7.3,9.2,85,0.00,CLR,OVC,0.01,WeatherDisplay:10.37,2013-06-03 11:42:00,
2013-06-03 07:43:00,68.5,63.5,29.75,SW,214,7.6,10.4,84,0.00,CLR,OVC,0.01,WeatherDisplay:10.37,2013-06-03 11:43:00,
2013-06-03 07:44:00,68.6,63.9,29.75,SSW,213,7.9,11.0,85,0.00,CLR,OVC,0.01,WeatherDisplay:10.37,2013-06-03 11:44:00,
2013-06-03 07:45:00,68.6,63.6,29.75,SSW,210,12.0,15.0,84,0.00,CLR,OVC,0.01,WeatherDisplay:10.37,2013-06-03 11:45:00,
2013-06-03 07:46:00,68.6,63.2,29.75,SW,214,13.0,17.3,83,0.00,CLR,OVC,0.01,WeatherDisplay:10.37,2013-06-03 11:46:00,
2013-06-03 07:47:00,68.7,63.0,29.75,SSW,210,9.4,13.8,82,0.00,CLR,OVC,0.01,WeatherDisplay:10.37,2013-06-03 11:47:00,
2013-06-03 07:48:00,68.7,63.0,29.75,SSW,208,8.1,11.5,82,0.00,CLR,OVC,0.01,WeatherDisplay:10.37,2013-06-03 11:48:00,
2013-06-03 07:49:00,68.8,63.1,29.75,SSW,202,10.2,13.8,82,0.00,CLR,OVC,0.01,WeatherDisplay:10.37,2013-06-03 11:49:00,
2013-06-03 07:50:00,68.8,62.7,29.76,SSW,192,9.8,15.0,81,0.00,CLR,OVC,0.01,WeatherDisplay:10.37,2013-06-03 11:50:00,
2013-06-03 07:51:00,68.8,63.1,29.75,SW,215,8.4,12.7,82,0.00,CLR,OVC,0.01,WeatherDisplay:10.37,2013-06-03 11:51:00,
2013-06-03 07:52:00,68.9,63.2,29.75,SSW,201,8.8,11.5,82,0.00,CLR,OVC,0.01,WeatherDisplay:10.37,2013-06-03 11:52:00,
2013-06-03 07:53:00,68.9,63.2,29.76,SSW,208,10.2,12.7,82,0.00,CLR,OVC,0.01,WeatherDisplay:10.37,2013-06-03 11:53:00,
2013-06-03 07:55:00,69.0,63.3,29.76,SW,215,10.4,12.7,82,0.00,CLR,OVC,0.01,WeatherDisplay:10.37,2013-06-03 11:55:00,
2013-06-03 07:57:00,69.0,62.9,29.76,SW,218,11.9,15.0,81,0.00,CLR,OVC,0.01,WeatherDisplay:10.37,2013-06-03 11:57:00,
2013-06-03 07:58:00,69.0,62.9,29.76,SW,219,9.3,13.8,81,0.00,CLR,OVC,0.01,WeatherDisplay:10.37,2013-06-03 11:58:00,
2013-06-03 08:00:00,69.0,63.3,29.76,SSW,210,6.9,11.5,82,0.00,CLR,OVC,0.01,WeatherDisplay:10.37,2013-06-03 12:00:00,
2013-06-03 08:02:00,69.1,63.4,29.76,SW,218,10.4,13.8,82,0.00,CLR,OVC,0.01,WeatherDisplay:10.37,2013-06-03 12:02:00,
2013-06-03 08:04:00,69.2,63.5,29.76,SSW,192,7.1,11.5,82,0.00,CLR,OVC,0.01,WeatherDisplay:10.37,2013-06-03 12:04:00,
2013-06-03 08:05:00,69.2,63.5,29.76,SSW,206,6.0,9.2,82,0.00,CLR,OVC,0.01,WeatherDisplay:10.37,2013-06-03 12:05:00,
2013-06-03 08:07:00,69.3,63.6,29.76,SSW,197,8.5,10.4,82,0.00,CLR,OVC,0.01,WeatherDisplay:10.37,2013-06-03 12:07:00,
2013-06-03 08:09:00,69.5,63.8,29.76,SSW,207,6.7,10.4,82,0.00,CLR,OVC,0.01,WeatherDisplay:10.37,2013-06-03 12:09:00,
2013-06-03 08:10:00,69.5,63.8,29.76,SSW,212,8.8,11.5,82,0.00,CLR,OVC,0.01,WeatherDisplay:10.37,2013-06-03 12:10:00,
2013-06-03 08:11:00,69.5,63.8,29.76,SSW,210,9.3,11.5,82,0.00,CLR,OVC,0.01,WeatherDisplay:10.37,2013-06-03 12:11:00,
2013-06-03 08:12:00,69.5,63.8,29.76,SW,222,8.9,12.0,82,0.00,CLR,OVC,0.01,WeatherDisplay:10.37,2013-06-03 12:12:00,
2013-06-03 08:14:00,69.6,63.9,29.76,SW,221,8.7,13.8,82,0.00,CLR,OVC,0.01,WeatherDisplay:10.37,2013-06-03 12:14:00,
2013-06-03 08:16:00,69.7,64.3,29.76,SW,226,10.3,17.0,83,0.00,CLR,OVC,0.01,WeatherDisplay:10.37,2013-06-03 12:16:00,
2013-06-03 08:17:00,69.7,63.6,29.76,SW,224,12.7,17.3,81,0.00,CLR,OVC,0.01,WeatherDisplay:10.37,2013-06-03 12:17:00,
2013-06-03 08:18:00,69.7,63.6,29.76,WSW,237,11.9,17.3,81,0.00,CLR,OVC,0.01,WeatherDisplay:10.37,2013-06-03 12:18:00,
2013-06-03 08:19:00,69.7,63.6,29.76,SW,236,12.0,13.8,81,0.00,CLR,OVC,0.01,WeatherDisplay:10.37,2013-06-03 12:19:00,
2013-06-03 08:21:00,69.8,63.7,29.77,SW,222,10.3,12.0,81,0.00,CLR,OVC,0.01,WeatherDisplay:10.37,2013-06-03 12:21:00,
2013-06-03 08:22:00,69.8,64.1,29.77,SW,235,10.5,15.0,82,0.00,CLR,OVC,0.01,WeatherDisplay:10.37,2013-06-03 12:22:00,
2013-06-03 08:23:00,69.8,63.7,29.77,SW,221,11.5,15.0,81,0.00,CLR,OVC,0.01,WeatherDisplay:10.37,2013-06-03 12:23:00,
2013-06-03 08:25:00,69.9,63.8,29.77,SSW,209,13.6,16.1,81,0.00,CLR,OVC,0.01,WeatherDisplay:10.37,2013-06-03 12:25:00,
2013-06-03 08:27:00,69.8,63.3,29.77,SW,219,11.3,16.1,80,0.00,CLR,OVC,0.01,WeatherDisplay:10.37,2013-06-03 12:27:00,
2013-06-03 08:28:00,69.8,63.3,29.77,SW,220,13.4,18.4,80,0.00,CLR,OVC,0.01,WeatherDisplay:10.37,2013-06-03 12:28:00,
2013-06-03 08:30:00,69.6,63.2,29.77,SW,214,11.3,15.0,80,0.00,CLR,OVC,0.01,WeatherDisplay:10.37,2013-06-03 12:30:00,
2013-06-03 08:32:00,69.6,63.2,29.77,SW,218,11.0,13.0,80,0.00,CLR,OVC,0.01,WeatherDisplay:10.37,2013-06-03 12:32:00,
2013-06-03 08:33:00,69.5,63.1,29.77,SSW,209,11.4,13.8,80,0.00,CLR,OVC,0.01,WeatherDisplay:10.37,2013-06-03 12:33:00,
2013-06-03 08:35:00,69.5,63.4,29.77,SW,217,8.1,9.2,81,0.00,CLR,OVC,0.01,WeatherDisplay:10.37,2013-06-03 12:35:00,
2013-06-03 08:37:00,69.4,63.0,29.77,SW,214,13.3,18.0,80,0.00,CLR,OVC,0.01,WeatherDisplay:10.37,2013-06-03 12:37:00,
2013-06-03 08:38:00,69.4,63.0,29.77,SSW,200,11.9,18.4,80,0.00,CLR,OVC,0.01,WeatherDisplay:10.37,2013-06-03 12:38:00,
2013-06-03 08:40:00,69.3,63.2,29.77,SW,215,6.6,11.5,81,0.00,CLR,OVC,0.01,WeatherDisplay:10.37,2013-06-03 12:40:00,
2013-06-03 08:42:00,69.4,63.3,29.77,SW,217,8.9,11.5,81,0.00,CLR,OVC,0.01,WeatherDisplay:10.37,2013-06-03 12:42:00,
2013-06-03 08:43:00,69.3,63.2,29.77,SW,220,10.3,15.0,81,0.00,CLR,OVC,0.01,WeatherDisplay:10.37,2013-06-03 12:43:00,
2013-06-03 08:44:00,69.3,63.2,29.77,SW,227,11.5,15.0,81,0.00,CLR,OVC,0.01,WeatherDisplay:10.37,2013-06-03 12:44:00,
2013-06-03 08:46:00,69.3,63.2,29.77,SSW,213,10.0,16.1,81,0.00,CLR,OVC,0.01,WeatherDisplay:10.37,2013-06-03 12:46:00,
2013-06-03 08:47:00,69.3,63.2,29.77,SW,220,7.9,11.5,81,0.00,CLR,OVC,0.01,WeatherDisplay:10.37,2013-06-03 12:47:00,
2013-06-03 08:48:00,69.3,63.2,29.77,SW,222,7.6,10.4,81,0.00,CLR,OVC,0.01,WeatherDisplay:10.37,2013-06-03 12:48:00,
2013-06-03 08:49:00,69.4,63.3,29.77,SW,236,8.8,13.0,81,0.00,CLR,OVC,0.01,WeatherDisplay:10.37,2013-06-03 12:49:00,
2013-06-03 08:51:00,69.4,63.3,29.77,SW,233,8.3,11.5,81,0.00,CLR,OVC,0.01,WeatherDisplay:10.37,2013-06-03 12:51:00,
2013-06-03 08:52:00,69.6,63.5,29.77,WSW,244,5.5,10.4,81,0.00,CLR,OVC,0.01,WeatherDisplay:10.37,2013-06-03 12:52:00,
2013-06-03 08:53:00,69.6,63.5,29.77,SW,227,4.8,8.1,81,0.00,CLR,OVC,0.01,WeatherDisplay:10.37,2013-06-03 12:53:00,
2013-06-03 08:54:00,69.7,63.6,29.77,SW,219,8.1,10.0,81,0.00,CLR,OVC,0.01,WeatherDisplay:10.37,2013-06-03 12:54:00,
2013-06-03 08:56:00,69.8,63.3,29.77,SW,220,9.6,16.0,80,0.00,CLR,OVC,0.01,WeatherDisplay:10.37,2013-06-03 12:56:00,
2013-06-03 08:57:00,69.9,62.4,29.77,SW,226,11.9,16.1,77,0.00,CLR,OVC,0.01,WeatherDisplay:10.37,2013-06-03 12:57:00,
2013-06-03 08:58:00,69.9,62.4,29.77,SW,233,11.2,15.0,77,0.00,CLR,OVC,0.01,WeatherDisplay:10.37,2013-06-03 12:58:00,
2013-06-03 08:59:00,69.9,62.0,29.77,WSW,240,12.4,15.0,76,0.00,CLR,OVC,0.01,WeatherDisplay:10.37,2013-06-03 12:59:00,
2013-06-03 09:01:00,69.7,61.4,29.77,WSW,247,9.7,12.7,75,0.00,CLR,OVC,0.01,WeatherDisplay:10.37,2013-06-03 13:01:00,
2013-06-03 09:03:00,69.7,61.4,29.77,WSW,238,8.3,12.7,75,0.00,CLR,OVC,0.01,WeatherDisplay:10.37,2013-06-03 13:03:00,
2013-06-03 09:04:00,69.6,61.7,29.77,SW,236,6.9,9.2,76,0.00,CLR,OVC,0.01,WeatherDisplay:10.37,2013-06-03 13:04:00,
2013-06-03 09:07:00,69.6,62.1,29.77,West,263,5.7,9.2,77,0.00,CLR,OVC,0.01,WeatherDisplay:10.37,2013-06-03 13:07:00,
2013-06-03 09:08:00,69.7,61.8,29.77,WSW,247,10.1,12.0,76,0.00,CLR,OVC,0.01,WeatherDisplay:10.37,2013-06-03 13:08:00,
2013-06-03 09:09:00,69.7,61.4,29.77,WSW,242,10.6,13.8,75,0.00,CLR,OVC,0.01,WeatherDisplay:10.37,2013-06-03 13:09:00,
2013-06-03 09:10:00,69.7,61.4,29.77,WSW,242,10.0,14.0,75,0.00,CLR,OVC,0.01,WeatherDisplay:10.37,2013-06-03 13:10:00,
2013-06-03 09:12:00,69.8,61.1,29.77,WSW,238,11.5,13.8,74,0.00,CLR,OVC,0.01,WeatherDisplay:10.37,2013-06-03 13:12:00,
2013-06-03 09:14:00,69.8,60.8,29.77,WSW,238,9.9,15.0,73,0.00,CLR,OVC,0.01,WeatherDisplay:10.37,2013-06-03 13:14:00,
2013-06-03 09:15:00,69.9,60.8,29.77,WSW,242,8.1,11.5,73,0.00,CLR,OVC,0.01,WeatherDisplay:10.37,2013-06-03 13:15:00,
2013-06-03 09:17:00,69.9,60.5,29.77,WSW,242,9.6,12.7,72,0.00,CLR,OVC,0.01,WeatherDisplay:10.37,2013-06-03 13:17:00,
2013-06-03 09:19:00,70.0,60.9,29.77,WSW,242,7.3,9.2,73,0.00,CLR,OVC,0.01,WeatherDisplay:10.37,2013-06-03 13:19:00,
2013-06-03 09:20:00,70.0,60.9,29.77,WSW,242,6.1,9.2,73,0.00,CLR,OVC,0.01,WeatherDisplay:10.37,2013-06-03 13:20:00,
2013-06-03 09:22:00,70.1,61.0,29.77,WSW,240,8.0,11.5,73,0.00,CLR,OVC,0.01,WeatherDisplay:10.37,2013-06-03 13:22:00,
2013-06-03 09:24:00,70.1,61.4,29.77,WSW,240,6.8,9.2,74,0.00,CLR,OVC,0.01,WeatherDisplay:10.37,2013-06-03 13:24:00,
2013-06-03 09:25:00,70.1,61.4,29.77,WSW,237,7.8,9.2,74,0.00,CLR,OVC,0.01,WeatherDisplay:10.37,2013-06-03 13:25:00,
2013-06-03 09:26:00,70.1,61.4,29.77,SW,232,7.9,10.4,74,0.00,CLR,OVC,0.01,WeatherDisplay:10.37,2013-06-03 13:26:00,
2013-06-03 09:28:00,70.3,62.4,29.77,SW,218,6.2,11.5,76,0.00,CLR,OVC,0.01,WeatherDisplay:10.37,2013-06-03 13:28:00,
2013-06-03 09:29:00,70.3,62.4,29.77,WSW,240,7.5,8.1,76,0.00,CLR,OVC,0.01,WeatherDisplay:10.37,2013-06-03 13:29:00,
2013-06-03 09:31:00,70.4,62.1,29.77,WSW,249,6.9,8.1,75,0.00,CLR,OVC,0.01,WeatherDisplay:10.37,2013-06-03 13:31:00,
2013-06-03 09:33:00,70.4,62.1,29.77,West,259,5.4,8.1,75,0.00,CLR,OVC,0.01,WeatherDisplay:10.37,2013-06-03 13:33:00,
2013-06-03 09:34:00,70.5,62.9,29.77,SW,223,5.4,9.0,77,0.00,CLR,OVC,0.01,WeatherDisplay:10.37,2013-06-03 13:34:00,
2013-06-03 09:35:00,70.5,62.9,29.77,SW,227,7.5,15.0,77,0.00,CLR,OVC,0.01,WeatherDisplay:10.37,2013-06-03 13:35:00,
2013-06-03 09:36:00,70.7,63.1,29.77,SW,224,10.0,15.0,77,0.00,CLR,OVC,0.01,WeatherDisplay:10.37,2013-06-03 13:36:00,
2013-06-03 09:38:00,70.9,62.6,29.77,WSW,251,6.9,8.1,75,0.00,CLR,OVC,0.01,WeatherDisplay:10.37,2013-06-03 13:38:00,
2013-06-03 09:39:00,71.0,62.7,29.77,SW,218,7.4,9.2,75,0.00,CLR,OVC,0.01,WeatherDisplay:10.37,2013-06-03 13:39:00,
2013-06-03 09:40:00,71.0,62.7,29.78,SSW,204,7.9,9.2,75,0.00,CLR,OVC,0.01,WeatherDisplay:10.37,2013-06-03 13:40:00,
2013-06-03 09:41:00,71.0,62.7,29.78,SSW,210,7.0,11.5,75,0.00,CLR,OVC,0.01,WeatherDisplay:10.37,2013-06-03 13:41:00,
2013-06-03 09:42:00,71.0,62.7,29.78,SW,215,9.1,14.0,75,0.00,CLR,OVC,0.01,WeatherDisplay:10.37,2013-06-03 13:42:00,
2013-06-03 09:43:00,71.0,62.3,29.78,SW,217,10.7,13.8,74,0.00,CLR,OVC,0.01,WeatherDisplay:10.37,2013-06-03 13:43:00,
2013-06-03 09:44:00,71.0,62.3,29.78,SSW,205,9.6,13.8,74,0.00,CLR,OVC,0.01,WeatherDisplay:10.37,2013-06-03 13:44:00,
2013-06-03 09:45:00,70.9,62.2,29.78,SW,220,10.7,14.0,74,0.00,CLR,OVC,0.01,WeatherDisplay:10.37,2013-06-03 13:45:00,
2013-06-03 09:47:00,70.7,61.6,29.78,SSW,212,10.3,16.1,73,0.00,CLR,OVC,0.01,WeatherDisplay:10.37,2013-06-03 13:47:00,
2013-06-03 09:48:00,70.6,61.5,29.78,SW,231,9.5,11.5,73,0.00,CLR,OVC,0.01,WeatherDisplay:10.37,2013-06-03 13:48:00,
2013-06-03 09:49:00,70.5,61.4,29.78,SW,231,8.7,12.0,73,0.00,CLR,OVC,0.01,WeatherDisplay:10.37,2013-06-03 13:49:00,
2013-06-03 09:51:00,70.4,61.3,29.77,WSW,237,11.3,17.3,73,0.00,CLR,OVC,0.01,WeatherDisplay:10.37,2013-06-03 13:51:00,
2013-06-03 09:52:00,70.4,61.7,29.77,WSW,242,8.5,15.0,74,0.00,CLR,OVC,0.01,WeatherDisplay:10.37,2013-06-03 13:52:00,
2013-06-03 09:53:00,70.4,61.3,29.77,SW,232,6.8,9.2,73,0.00,CLR,OVC,0.01,WeatherDisplay:10.37,2013-06-03 13:53:00,
2013-06-03 09:55:00,70.5,61.8,29.77,SW,226,11.0,15.0,74,0.00,CLR,OVC,0.01,WeatherDisplay:10.37,2013-06-03 13:55:00,
2013-06-03 09:56:00,70.6,62.3,29.77,SW,234,10.4,12.7,75,0.00,CLR,OVC,0.01,WeatherDisplay:10.37,2013-06-03 13:56:00,
2013-06-03 09:57:00,70.7,62.4,29.78,SW,234,10.4,13.0,75,0.00,CLR,OVC,0.01,WeatherDisplay:10.37,2013-06-03 13:57:00,
2013-06-03 09:58:00,70.8,61.7,29.77,SW,232,11.7,13.8,73,0.00,CLR,OVC,0.01,WeatherDisplay:10.37,2013-06-03 13:58:00,
2013-06-03 10:00:00,70.8,60.9,29.78,SW,228,10.2,13.8,71,0.00,CLR,OVC,0.01,WeatherDisplay:10.37,2013-06-03 14:00:00,
2013-06-03 10:02:00,70.8,61.3,29.78,SW,225,12.3,17.3,72,0.00,CLR,OVC,0.01,WeatherDisplay:10.37,2013-06-03 14:02:00,
2013-06-03 10:03:00,70.9,61.8,29.78,SW,225,10.0,12.7,73,0.00,CLR,OVC,0.01,WeatherDisplay:10.37,2013-06-03 14:03:00,
2013-06-03 10:04:00,71.0,62.3,29.77,SW,224,9.6,13.8,74,0.00,CLR,OVC,0.01,WeatherDisplay:10.37,2013-06-03 14:04:00,
2013-06-03 10:05:00,71.1,61.2,29.77,SW,224,9.7,13.8,71,0.00,CLR,OVC,0.01,WeatherDisplay:10.37,2013-06-03 14:05:00,
2013-06-03 10:07:00,71.0,61.9,29.78,WSW,237,8.8,11.5,73,0.00,CLR,OVC,0.01,WeatherDisplay:10.37,2013-06-03 14:07:00,
2013-06-03 10:08:00,71.1,62.0,29.77,SW,234,7.7,10.4,73,0.00,CLR,OVC,0.01,WeatherDisplay:10.37,2013-06-03 14:08:00,
2013-06-03 10:09:00,71.1,62.0,29.78,WSW,253,7.6,11.5,73,0.00,CLR,OVC,0.01,WeatherDisplay:10.37,2013-06-03 14:09:00,
2013-06-03 10:10:00,71.1,61.6,29.77,SW,236,10.8,13.8,72,0.00,CLR,OVC,0.01,WeatherDisplay:10.37,2013-06-03 14:10:00,
2013-06-03 10:13:00,71.2,62.1,29.78,SSW,196,8.0,10.4,73,0.00,CLR,OVC,0.01,WeatherDisplay:10.37,2013-06-03 14:13:00,
2013-06-03 10:14:00,71.3,63.0,29.78,SW,231,8.9,11.5,75,0.00,CLR,OVC,0.01,WeatherDisplay:10.37,2013-06-03 14:14:00,
2013-06-03 10:15:00,71.5,62.4,29.78,SW,216,11.8,13.8,73,0.00,CLR,OVC,0.01,WeatherDisplay:10.37,2013-06-03 14:15:00,
2013-06-03 10:18:00,71.6,62.1,29.78,SW,233,9.2,13.8,72,0.00,CLR,OVC,0.01,WeatherDisplay:10.37,2013-06-03 14:18:00,
2013-06-03 10:19:00,71.7,62.2,29.78,WSW,246,7.9,10.4,72,0.00,CLR,OVC,0.01,WeatherDisplay:10.37,2013-06-03 14:19:00,
2013-06-03 10:20:00,71.8,62.3,29.78,WSW,238,8.4,12.0,72,0.00,CLR,OVC,0.01,WeatherDisplay:10.37,2013-06-03 14:20:00,
2013-06-03 10:23:00,72.0,62.1,29.78,SW,236,12.1,12.7,71,0.00,CLR,OVC,0.01,WeatherDisplay:10.37,2013-06-03 14:23:00,
2013-06-03 10:24:00,72.0,62.1,29.78,SW,235,12.6,17.3,71,0.00,CLR,OVC,0.01,WeatherDisplay:10.37,2013-06-03 14:24:00,
2013-06-03 10:25:00,72.0,62.1,29.78,WSW,246,11.9,13.8,71,0.00,CLR,OVC,0.01,WeatherDisplay:10.37,2013-06-03 14:25:00,
2013-06-03 10:28:00,72.0,61.3,29.78,WSW,250,10.7,16.1,69,0.00,CLR,OVC,0.01,WeatherDisplay:10.37,2013-06-03 14:28:00,
2013-06-03 10:29:00,71.9,61.2,29.78,WSW,255,9.3,13.8,69,0.00,CLR,OVC,0.01,WeatherDisplay:10.37,2013-06-03 14:29:00,
2013-06-03 10:30:00,71.9,61.2,29.78,WSW,238,8.2,13.8,69,0.00,CLR,OVC,0.01,WeatherDisplay:10.37,2013-06-03 14:30:00,
2013-06-03 10:31:00,71.9,61.6,29.78,WSW,253,9.2,11.5,70,0.00,CLR,OVC,0.01,WeatherDisplay:10.37,2013-06-03 14:31:00,
2013-06-03 10:34:00,71.8,61.5,29.78,WSW,247,8.6,11.5,70,0.00,CLR,OVC,0.01,WeatherDisplay:10.37,2013-06-03 14:34:00,
2013-06-03 10:35:00,71.8,61.9,29.78,WSW,247,7.7,11.5,71,0.00,CLR,OVC,0.01,WeatherDisplay:10.37,2013-06-03 14:35:00,
2013-06-03 10:36:00,71.8,61.5,29.78,WSW,254,10.3,12.7,70,0.00,CLR,OVC,0.01,WeatherDisplay:10.37,2013-06-03 14:36:00,
2013-06-03 10:39:00,71.8,61.1,29.78,West,276,6.2,9.0,69,0.00,CLR,OVC,0.01,WeatherDisplay:10.37,2013-06-03 14:39:00,
2013-06-03 10:40:00,71.7,60.6,29.78,NW,305,7.3,9.2,68,0.00,CLR,OVC,0.01,WeatherDisplay:10.37,2013-06-03 14:40:00,
2013-06-03 10:42:00,71.8,61.5,29.78,NW,312,6.3,10.4,70,0.00,CLR,OVC,0.01,WeatherDisplay:10.37,2013-06-03 14:42:00,
2013-06-03 10:44:00,71.8,61.9,29.78,NW,316,5.9,7.0,71,0.00,CLR,OVC,0.01,WeatherDisplay:10.37,2013-06-03 14:44:00,
2013-06-03 10:45:00,71.6,61.3,29.78,NW,307,8.0,10.4,70,0.00,CLR,OVC,0.01,WeatherDisplay:10.37,2013-06-03 14:45:00,
2013-06-03 10:47:00,71.1,62.0,29.77,NW,309,9.3,18.4,73,0.00,CLR,OVC,0.01,WeatherDisplay:10.37,2013-06-03 14:47:00,
2013-06-03 10:49:00,71.0,62.7,29.78,NNE,30,4.8,6.9,75,0.00,CLR,OVC,0.01,WeatherDisplay:10.37,2013-06-03 14:49:00,
2013-06-03 10:50:00,70.9,62.2,29.78,NNE,27,4.4,10.0,74,0.00,CLR,OVC,0.01,WeatherDisplay:10.37,2013-06-03 14:50:00,
2013-06-03 10:53:00,70.6,61.5,29.78,NNE,20,10.4,13.8,73,0.00,CLR,OVC,0.01,WeatherDisplay:10.37,2013-06-03 14:53:00,
2013-06-03 10:54:00,70.2,61.1,29.78,NNE,17,11.9,13.8,73,0.00,CLR,OVC,0.01,WeatherDisplay:10.37,2013-06-03 14:54:00,
2013-06-03 10:55:00,70.1,61.0,29.78,NNE,30,12.0,16.1,73,0.00,CLR,OVC,0.01,WeatherDisplay:10.37,2013-06-03 14:55:00,
2013-06-03 10:57:00,69.8,61.1,29.78,NNE,31,8.8,19.0,74,0.00,CLR,OVC,0.01,WeatherDisplay:10.37,2013-06-03 14:57:00,
2013-06-03 10:58:00,69.5,60.5,29.78,NE,43,14.8,19.6,73,0.00,CLR,OVC,0.01,WeatherDisplay:10.37,2013-06-03 14:58:00,
2013-06-03 10:59:00,69.1,60.1,29.78,NE,34,10.0,16.1,73,0.00,CLR,OVC,0.01,WeatherDisplay:10.37,2013-06-03 14:59:00,
2013-06-03 11:00:00,69.0,60.4,29.78,NNE,23,10.2,14.0,74,0.00,CLR,OVC,0.01,WeatherDisplay:10.37,2013-06-03 15:00:00,
2013-06-03 11:01:00,68.8,60.2,29.78,NE,40,13.2,16.0,74,0.00,CLR,OVC,0.01,WeatherDisplay:10.37,2013-06-03 15:01:00,
2013-06-03 11:02:00,68.8,60.6,29.78,ENE,61,12.5,19.6,75,0.00,CLR,OVC,0.01,WeatherDisplay:10.37,2013-06-03 15:02:00,
2013-06-03 11:03:00,68.7,60.5,29.78,NNE,16,10.1,16.1,75,0.00,CLR,OVC,0.01,WeatherDisplay:10.37,2013-06-03 15:03:00,
2013-06-03 11:04:00,68.5,60.3,29.78,NE,43,7.4,11.5,75,0.00,CLR,OVC,0.01,WeatherDisplay:10.37,2013-06-03 15:04:00,
2013-06-03 11:05:00,68.4,60.2,29.78,North,6,8.8,11.5,75,0.00,CLR,OVC,0.01,WeatherDisplay:10.37,2013-06-03 15:05:00,
2013-06-03 11:06:00,68.3,60.1,29.78,North,7,3.6,11.5,75,0.00,CLR,OVC,0.01,WeatherDisplay:10.37,2013-06-03 15:06:00,
2013-06-03 11:07:00,68.3,60.4,29.78,NNE,25,2.9,4.6,76,0.00,CLR,OVC,0.01,WeatherDisplay:10.37,2013-06-03 15:07:00,
2013-06-03 11:08:00,68.2,60.3,29.78,NNE,20,2.9,6.0,76,0.00,CLR,OVC,0.01,WeatherDisplay:10.37,2013-06-03 15:08:00,
2013-06-03 11:09:00,68.2,60.3,29.79,NNE,18,3.4,10.0,76,0.00,CLR,OVC,0.01,WeatherDisplay:10.37,2013-06-03 15:09:00,
2013-06-03 11:11:00,68.2,60.3,29.78,North,1,7.7,10.4,76,0.00,CLR,OVC,0.01,WeatherDisplay:10.37,2013-06-03 15:11:00,
2013-06-03 11:12:00,68.2,60.3,29.78,NE,45,6.8,11.5,76,0.00,CLR,OVC,0.01,WeatherDisplay:10.37,2013-06-03 15:12:00,
2013-06-03 11:13:00,68.2,60.0,29.79,NE,34,6.7,12.0,75,0.00,CLR,OVC,0.01,WeatherDisplay:10.37,2013-06-03 15:13:00,
2013-06-03 11:15:00,68.1,59.9,29.78,NNE,23,7.6,11.5,75,0.00,CLR,OVC,0.01,WeatherDisplay:10.37,2013-06-03 15:15:00,
2013-06-03 11:17:00,68.1,59.9,29.78,NNE,26,7.5,15.0,75,0.00,CLR,OVC,0.01,WeatherDisplay:10.37,2013-06-03 15:17:00,
2013-06-03 11:18:00,68.1,59.9,29.78,NE,53,11.5,17.3,75,0.00,CLR,OVC,0.01,WeatherDisplay:10.37,2013-06-03 15:18:00,
2013-06-03 11:20:00,68.1,59.9,29.78,NE,42,9.7,17.3,75,0.00,CLR,OVC,0.01,WeatherDisplay:10.37,2013-06-03 15:20:00,
2013-06-03 11:22:00,68.1,59.9,29.78,NNE,31,10.2,12.7,75,0.00,CLR,OVC,0.01,WeatherDisplay:10.37,2013-06-03 15:22:00,
2013-06-03 11:23:00,68.1,59.9,29.79,NNE,32,10.8,14.0,75,0.00,CLR,OVC,0.01,WeatherDisplay:10.37,2013-06-03 15:23:00,
2013-06-03 11:25:00,68.2,60.0,29.78,NE,39,12.7,16.1,75,0.00,CLR,OVC,0.01,WeatherDisplay:10.37,2013-06-03 15:25:00,
2013-06-03 11:27:00,68.3,60.1,29.79,North,354,9.0,13.8,75,0.00,CLR,OVC,0.01,WeatherDisplay:10.37,2013-06-03 15:27:00,
2013-06-03 11:28:00,68.4,60.2,29.79,North,10,10.2,17.3,75,0.00,CLR,OVC,0.01,WeatherDisplay:10.37,2013-06-03 15:28:00,
2013-06-03 11:30:00,68.4,59.8,29.79,North,6,15.1,18.4,74,0.00,CLR,OVC,0.01,WeatherDisplay:10.37,2013-06-03 15:30:00,
2013-06-03 11:32:00,68.5,59.9,29.79,NNE,22,11.7,19.6,74,0.00,CLR,OVC,0.01,WeatherDisplay:10.37,2013-06-03 15:32:00,
2013-06-03 11:33:00,68.5,59.9,29.79,NNE,25,9.8,15.0,74,0.00,CLR,OVC,0.01,WeatherDisplay:10.37,2013-06-03 15:33:00,
2013-06-03 11:34:00,68.5,59.5,29.79,NNE,22,13.3,16.1,73,0.00,CLR,OVC,0.01,WeatherDisplay:10.37,2013-06-03 15:34:00,
2013-06-03 11:35:00,68.5,59.5,29.79,NNE,23,10.4,13.8,73,0.00,CLR,OVC,0.01,WeatherDisplay:10.37,2013-06-03 15:35:00,
2013-06-03 11:38:00,68.7,60.5,29.79,NE,36,7.5,10.4,75,0.00,CLR,OVC,0.01,WeatherDisplay:10.37,2013-06-03 15:38:00,
2013-06-03 11:39:00,68.8,59.4,29.79,NE,41,13.4,17.3,72,0.00,CLR,OVC,0.01,WeatherDisplay:10.37,2013-06-03 15:39:00,
2013-06-03 11:40:00,68.9,59.9,29.79,NNE,16,12.4,17.3,73,0.00,CLR,OVC,0.01,WeatherDisplay:10.37,2013-06-03 15:40:00,
2013-06-03 11:43:00,69.0,60.0,29.79,NNE,17,8.7,18.4,73,0.00,CLR,OVC,0.01,WeatherDisplay:10.37,2013-06-03 15:43:00,
2013-06-03 11:44:00,69.1,59.7,29.79,NNE,29,10.0,12.7,72,0.00,CLR,OVC,0.01,WeatherDisplay:10.37,2013-06-03 15:44:00,
2013-06-03 11:45:00,69.1,59.7,29.79,NNE,29,9.6,12.7,72,0.00,CLR,OVC,0.01,WeatherDisplay:10.37,2013-06-03 15:45:00,
2013-06-03 11:48:00,69.0,59.6,29.79,NNE,33,8.4,16.1,72,0.00,CLR,OVC,0.01,WeatherDisplay:10.37,2013-06-03 15:48:00,
2013-06-03 11:50:00,69.0,59.2,29.80,NNE,23,11.3,16.1,71,0.00,CLR,OVC,0.01,WeatherDisplay:10.37,2013-06-03 15:50:00,
2013-06-03 11:53:00,68.5,58.3,29.79,NNE,13,9.9,13.8,70,0.00,CLR,OVC,0.01,WeatherDisplay:10.37,2013-06-03 15:53:00,
2013-06-03 11:54:00,68.5,58.7,29.79,NNE,12,8.1,15.0,71,0.00,CLR,OVC,0.01,WeatherDisplay:10.37,2013-06-03 15:54:00,
2013-06-03 11:55:00,68.4,58.2,29.79,NNE,22,9.9,13.8,70,0.00,CLR,OVC,0.01,WeatherDisplay:10.37,2013-06-03 15:55:00,
2013-06-03 11:56:00,68.4,58.6,29.79,NE,36,8.1,14.0,71,0.00,CLR,OVC,0.01,WeatherDisplay:10.37,2013-06-03 15:56:00,
2013-06-03 11:58:00,68.5,59.1,29.79,North,9,6.1,10.4,72,0.00,CLR,OVC,0.01,WeatherDisplay:10.37,2013-06-03 15:58:00,
2013-06-03 11:59:00,68.6,59.2,29.79,NNE,32,8.6,12.7,72,0.00,CLR,OVC,0.01,WeatherDisplay:10.37,2013-06-03 15:59:00,
2013-06-03 12:00:00,68.7,59.3,29.79,ENE,61,8.2,12.7,72,0.00,CLR,OVC,0.01,WeatherDisplay:10.37,2013-06-03 16:00:00,
2013-06-03 12:02:00,68.9,59.5,29.79,North,11,11.0,16.1,72,0.00,CLR,OVC,0.01,WeatherDisplay:10.37,2013-06-03 16:02:00,
2013-06-03 12:03:00,68.8,58.6,29.79,NNE,30,12.9,16.1,70,0.00,CLR,OVC,0.01,WeatherDisplay:10.37,2013-06-03 16:03:00,
2013-06-03 12:04:00,68.8,59.0,29.79,East,99,10.2,18.4,71,0.00,CLR,OVC,0.01,WeatherDisplay:10.37,2013-06-03 16:04:00,
2013-06-03 12:05:00,68.9,59.1,29.79,NE,43,9.1,11.5,71,0.00,CLR,OVC,0.01,WeatherDisplay:10.37,2013-06-03 16:05:00,
2013-06-03 12:07:00,69.0,59.2,29.79,North,9,8.3,16.0,71,0.00,CLR,OVC,0.01,WeatherDisplay:10.37,2013-06-03 16:07:00,
2013-06-03 12:09:00,69.0,59.2,29.79,NNE,13,9.2,12.7,71,0.00,CLR,OVC,0.01,WeatherDisplay:10.37,2013-06-03 16:09:00,
2013-06-03 12:10:00,69.1,59.3,29.79,NNE,27,9.0,16.0,71,0.00,CLR,OVC,0.01,WeatherDisplay:10.37,2013-06-03 16:10:00,
2013-06-03 12:12:00,69.0,58.8,29.79,NNE,15,12.5,18.4,70,0.00,CLR,OVC,0.01,WeatherDisplay:10.37,2013-06-03 16:12:00,
2013-06-03 12:14:00,68.9,59.1,29.79,North,0,10.9,13.8,71,0.00,CLR,OVC,0.01,WeatherDisplay:10.37,2013-06-03 16:14:00,
2013-06-03 12:15:00,68.9,59.1,29.79,North,2,10.4,13.8,71,0.00,CLR,OVC,0.01,WeatherDisplay:10.37,2013-06-03 16:15:00,
2013-06-03 12:16:00,68.9,59.5,29.79,North,5,9.6,12.7,72,0.00,CLR,OVC,0.01,WeatherDisplay:10.37,2013-06-03 16:16:00,
2013-06-03 12:17:00,69.0,59.6,29.79,North,0,8.7,16.1,72,0.00,CLR,OVC,0.01,WeatherDisplay:10.37,2013-06-03 16:17:00,
2013-06-03 12:20:00,69.1,59.3,29.79,NNE,28,11.5,16.1,71,0.00,CLR,OVC,0.01,WeatherDisplay:10.37,2013-06-03 16:20:00,
2013-06-03 12:22:00,68.9,58.7,29.79,NNE,27,8.3,13.8,70,0.00,CLR,OVC,0.01,WeatherDisplay:10.37,2013-06-03 16:22:00,
2013-06-03 12:25:00,69.1,59.3,29.79,NNE,20,10.2,19.6,71,0.00,CLR,OVC,0.01,WeatherDisplay:10.37,2013-06-03 16:25:00,
2013-06-03 12:27:00,69.0,58.8,29.79,NNE,21,13.8,18.4,70,0.00,CLR,OVC,0.01,WeatherDisplay:10.37,2013-06-03 16:27:00,
2013-06-03 12:28:00,68.9,58.7,29.79,NE,38,10.5,13.8,70,0.00,CLR,OVC,0.01,WeatherDisplay:10.37,2013-06-03 16:28:00,
2013-06-03 12:30:00,68.8,58.2,29.79,NE,50,11.4,19.6,69,0.00,CLR,OVC,0.01,WeatherDisplay:10.37,2013-06-03 16:30:00,
2013-06-03 12:32:00,68.8,58.6,29.79,NNE,28,7.3,12.0,70,0.00,CLR,OVC,0.01,WeatherDisplay:10.37,2013-06-03 16:32:00,
2013-06-03 12:33:00,68.8,58.6,29.79,NNE,29,11.0,13.8,70,0.00,CLR,OVC,0.01,WeatherDisplay:10.37,2013-06-03 16:33:00,
2013-06-03 12:35:00,69.0,59.2,29.79,NNE,13,10.2,12.7,71,0.00,CLR,OVC,0.01,WeatherDisplay:10.37,2013-06-03 16:35:00,
2013-06-03 12:37:00,69.2,59.8,29.79,NNE,15,11.5,16.1,72,0.00,CLR,OVC,0.01,WeatherDisplay:10.37,2013-06-03 16:37:00,
2013-06-03 12:38:00,69.3,59.9,29.79,NNE,24,12.0,13.8,72,0.00,CLR,OVC,0.01,WeatherDisplay:10.37,2013-06-03 16:38:00,
2013-06-03 12:40:00,69.3,59.1,29.79,NE,45,12.8,13.8,70,0.00,CLR,OVC,0.01,WeatherDisplay:10.37,2013-06-03 16:40:00,
2013-06-03 12:42:00,69.4,59.2,29.79,NNE,33,10.4,13.8,70,0.00,CLR,OVC,0.01,WeatherDisplay:10.37,2013-06-03 16:42:00,
2013-06-03 12:44:00,69.4,58.8,29.79,NNE,31,9.1,16.1,69,0.00,CLR,OVC,0.01,WeatherDisplay:10.37,2013-06-03 16:44:00,
2013-06-03 12:45:00,69.3,59.1,29.79,NNE,27,8.2,11.0,70,0.00,CLR,OVC,0.01,WeatherDisplay:10.37,2013-06-03 16:45:00,
2013-06-03 12:46:00,69.4,59.2,29.79,North,0,9.2,16.1,70,0.00,CLR,OVC,0.01,WeatherDisplay:10.37,2013-06-03 16:46:00,
2013-06-03 12:47:00,69.4,59.2,29.79,NNE,19,8.5,11.5,70,0.00,CLR,OVC,0.01,WeatherDisplay:10.37,2013-06-03 16:47:00,
2013-06-03 12:49:00,69.6,59.4,29.79,North,3,10.0,16.1,70,0.00,CLR,OVC,0.01,WeatherDisplay:10.37,2013-06-03 16:49:00,
2013-06-03 12:50:00,69.5,58.5,29.79,NNE,16,10.9,15.0,68,0.00,CLR,OVC,0.01,WeatherDisplay:10.37,2013-06-03 16:50:00,
2013-06-03 12:51:00,69.5,58.9,29.79,NNE,15,8.6,15.0,69,0.00,CLR,OVC,0.01,WeatherDisplay:10.37,2013-06-03 16:51:00,
2013-06-03 12:52:00,69.4,58.8,29.79,NNE,24,11.5,15.0,69,0.00,CLR,OVC,0.01,WeatherDisplay:10.37,2013-06-03 16:52:00,
2013-06-03 12:54:00,69.3,59.1,29.78,NNE,19,9.9,16.0,70,0.00,CLR,OVC,0.01,WeatherDisplay:10.37,2013-06-03 16:54:00,
2013-06-03 12:55:00,69.3,58.7,29.79,NNE,25,12.3,16.1,69,0.00,CLR,OVC,0.01,WeatherDisplay:10.37,2013-06-03 16:55:00,
2013-06-03 12:57:00,69.3,58.3,29.79,NNE,27,9.7,15.0,68,0.00,CLR,OVC,0.01,WeatherDisplay:10.37,2013-06-03 16:57:00,
2013-06-03 12:59:00,69.3,58.7,29.78,North,3,10.3,16.1,69,0.00,CLR,OVC,0.01,WeatherDisplay:10.37,2013-06-03 16:59:00,
2013-06-03 13:00:00,69.3,58.7,29.78,NE,35,10.6,15.0,69,0.00,CLR,OVC,0.01,WeatherDisplay:10.37,2013-06-03 17:00:00,
2013-06-03 13:02:00,69.3,58.3,29.79,NNE,28,11.9,16.1,68,0.00,CLR,OVC,0.01,WeatherDisplay:10.37,2013-06-03 17:02:00,
2013-06-03 13:04:00,69.3,58.3,29.78,NNE,22,11.9,13.8,68,0.00,CLR,OVC,0.01,WeatherDisplay:10.37,2013-06-03 17:04:00,
2013-06-03 13:05:00,69.3,58.3,29.78,North,8,10.5,18.4,68,0.00,CLR,OVC,0.01,WeatherDisplay:10.37,2013-06-03 17:05:00,
2013-06-03 13:07:00,69.4,59.2,29.79,North,5,8.7,13.8,70,0.00,CLR,OVC,0.01,WeatherDisplay:10.37,2013-06-03 17:07:00,
2013-06-03 13:08:00,69.5,59.3,29.79,NNE,19,10.2,13.8,70,0.00,CLR,OVC,0.01,WeatherDisplay:10.37,2013-06-03 17:08:00,
2013-06-03 13:10:00,69.6,59.0,29.79,North,8,9.9,12.7,69,0.00,CLR,OVC,0.01,WeatherDisplay:10.37,2013-06-03 17:10:00,
2013-06-03 13:11:00,69.7,59.1,29.79,NNE,15,9.3,12.7,69,0.00,CLR,OVC,0.01,WeatherDisplay:10.37,2013-06-03 17:11:00,
2013-06-03 13:12:00,69.8,59.2,29.79,NNE,19,11.5,16.1,69,0.00,CLR,OVC,0.01,WeatherDisplay:10.37,2013-06-03 17:12:00,
2013-06-03 13:13:00,69.8,58.8,29.78,NNE,26,10.8,16.1,68,0.00,CLR,OVC,0.01,WeatherDisplay:10.37,2013-06-03 17:13:00,
2013-06-03 13:15:00,69.9,59.3,29.78,NNE,19,9.5,13.0,69,0.00,CLR,OVC,0.01,WeatherDisplay:10.37,2013-06-03 17:15:00,
2013-06-03 13:17:00,69.9,59.3,29.78,North,6,9.3,12.7,69,0.00,CLR,OVC,0.01,WeatherDisplay:10.37,2013-06-03 17:17:00,
2013-06-03 13:18:00,69.9,59.3,29.78,NNE,13,6.9,12.7,69,0.00,CLR,OVC,0.01,WeatherDisplay:10.37,2013-06-03 17:18:00,
2013-06-03 13:20:00,70.0,59.0,29.78,NE,40,9.3,12.7,68,0.00,CLR,OVC,0.01,WeatherDisplay:10.37,2013-06-03 17:20:00,
2013-06-03 13:22:00,70.0,58.5,29.78,NE,35,10.5,13.8,67,0.00,CLR,OVC,0.01,WeatherDisplay:10.37,2013-06-03 17:22:00,
2013-06-03 13:23:00,70.0,59.0,29.78,NNE,22,8.4,11.5,68,0.00,CLR,OVC,0.01,WeatherDisplay:10.37,2013-06-03 17:23:00,
2013-06-03 13:25:00,70.1,59.0,29.78,North,0,10.0,12.7,68,0.00,CLR,OVC,0.01,WeatherDisplay:10.37,2013-06-03 17:25:00,
2013-06-03 13:27:00,70.1,59.0,29.78,NNW,347,7.8,11.5,68,0.00,CLR,OVC,0.01,WeatherDisplay:10.37,2013-06-03 17:27:00,
2013-06-03 13:28:00,70.1,58.6,29.78,NE,46,7.2,11.5,67,0.00,CLR,OVC,0.01,WeatherDisplay:10.37,2013-06-03 17:28:00,
2013-06-03 13:30:00,70.1,58.6,29.78,North,2,7.7,11.5,67,0.00,CLR,OVC,0.01,WeatherDisplay:10.37,2013-06-03 17:30:00,
2013-06-03 13:32:00,70.1,59.0,29.78,North,3,6.7,11.5,68,0.00,CLR,OVC,0.01,WeatherDisplay:10.37,2013-06-03 17:32:00,
2013-06-03 13:33:00,70.2,59.1,29.78,NNE,12,4.9,11.5,68,0.00,CLR,OVC,0.01,WeatherDisplay:10.37,2013-06-03 17:33:00,
2013-06-03 13:34:00,70.2,59.1,29.78,North,359,5.8,8.1,68,0.00,CLR,OVC,0.01,WeatherDisplay:10.37,2013-06-03 17:34:00,
2013-06-03 13:35:00,70.4,59.3,29.78,North,0,9.2,11.5,68,0.00,CLR,OVC,0.01,WeatherDisplay:10.37,2013-06-03 17:35:00,
2013-06-03 13:37:00,70.4,58.9,29.78,NNE,28,7.6,12.7,67,0.00,CLR,OVC,0.01,WeatherDisplay:10.37,2013-06-03 17:37:00,
2013-06-03 13:38:00,70.5,59.0,29.78,NNE,20,6.2,11.5,67,0.00,CLR,OVC,0.01,WeatherDisplay:10.37,2013-06-03 17:38:00,
2013-06-03 13:39:00,70.5,59.0,29.78,NNE,22,8.3,9.2,67,0.00,CLR,OVC,0.01,WeatherDisplay:10.37,2013-06-03 17:39:00,
2013-06-03 13:40:00,70.5,58.6,29.78,North,3,8.5,12.7,66,0.00,CLR,OVC,0.01,WeatherDisplay:10.37,2013-06-03 17:40:00,
2013-06-03 13:42:00,70.5,59.0,29.78,North,5,8.0,11.5,67,0.00,CLR,OVC,0.01,WeatherDisplay:10.37,2013-06-03 17:42:00,
2013-06-03 13:43:00,70.5,59.0,29.78,NNE,28,9.8,11.5,67,0.00,CLR,OVC,0.01,WeatherDisplay:10.37,2013-06-03 17:43:00,
2013-06-03 13:44:00,70.5,58.6,29.78,East,85,9.5,18.4,66,0.00,CLR,OVC,0.01,WeatherDisplay:10.37,2013-06-03 17:44:00,
2013-06-03 13:46:00,70.5,59.0,29.78,NNE,13,6.2,10.4,67,0.00,CLR,OVC,0.01,WeatherDisplay:10.37,2013-06-03 17:46:00,
2013-06-03 13:48:00,70.5,59.0,29.77,NNE,12,8.9,12.7,67,0.00,CLR,OVC,0.01,WeatherDisplay:10.37,2013-06-03 17:48:00,
2013-06-03 13:50:00,70.5,58.2,29.78,NNE,24,10.7,16.1,65,0.00,CLR,OVC,0.01,WeatherDisplay:10.37,2013-06-03 17:50:00,
2013-06-03 13:51:00,70.5,59.4,29.78,North,9,7.1,11.5,68,0.00,CLR,OVC,0.01,WeatherDisplay:10.37,2013-06-03 17:51:00,
2013-06-03 13:53:00,70.6,59.1,29.78,North,356,9.5,11.5,67,0.00,CLR,OVC,0.01,WeatherDisplay:10.37,2013-06-03 17:53:00,
2013-06-03 13:54:00,70.5,59.0,29.78,North,5,6.9,10.4,67,0.00,CLR,OVC,0.01,WeatherDisplay:10.37,2013-06-03 17:54:00,
2013-06-03 13:55:00,70.6,59.1,29.78,NNW,345,10.0,12.7,67,0.00,CLR,OVC,0.01,WeatherDisplay:10.37,2013-06-03 17:55:00,
2013-06-03 13:57:00,70.7,60.0,29.78,North,355,10.9,13.8,69,0.00,CLR,OVC,0.01,WeatherDisplay:10.37,2013-06-03 17:57:00,
2013-06-03 13:58:00,70.8,60.1,29.78,North,5,9.5,12.7,69,0.00,CLR,OVC,0.01,WeatherDisplay:10.37,2013-06-03 17:58:00,
2013-06-03 13:59:00,70.7,59.6,29.78,North,354,11.3,13.0,68,0.00,CLR,OVC,0.01,WeatherDisplay:10.37,2013-06-03 17:59:00,
2013-06-03 14:00:00,70.7,59.6,29.78,North,356,12.2,13.8,68,0.00,CLR,OVC,0.01,WeatherDisplay:10.37,2013-06-03 18:00:00,
2013-06-03 14:02:00,70.6,59.1,29.78,North,355,11.9,13.8,67,0.00,CLR,OVC,0.01,WeatherDisplay:10.37,2013-06-03 18:02:00,
2013-06-03 14:03:00,70.6,58.7,29.78,NNE,18,10.9,14.0,66,0.00,CLR,OVC,0.01,WeatherDisplay:10.37,2013-06-03 18:03:00,
2013-06-03 14:05:00,70.5,58.6,29.78,North,3,9.2,16.1,66,0.00,CLR,OVC,0.01,WeatherDisplay:10.37,2013-06-03 18:05:00,
2013-06-03 14:07:00,70.7,59.2,29.78,North,352,7.3,9.2,67,0.00,CLR,OVC,0.01,WeatherDisplay:10.37,2013-06-03 18:07:00,
2013-06-03 14:08:00,70.8,59.7,29.78,North,4,7.9,11.0,68,0.00,CLR,OVC,0.01,WeatherDisplay:10.37,2013-06-03 18:08:00,
2013-06-03 14:09:00,70.8,59.3,29.78,NNW,344,9.5,11.5,67,0.00,CLR,OVC,0.01,WeatherDisplay:10.37,2013-06-03 18:09:00,
2013-06-03 14:10:00,70.8,59.3,29.78,North,7,9.0,11.5,67,0.00,CLR,OVC,0.01,WeatherDisplay:10.37,2013-06-03 18:10:00,
2013-06-03 14:13:00,70.9,59.4,29.78,North,355,6.8,10.4,67,0.00,CLR,OVC,0.01,WeatherDisplay:10.37,2013-06-03 18:13:00,
2013-06-03 14:14:00,71.0,59.5,29.78,NNE,12,7.9,10.0,67,0.00,CLR,OVC,0.01,WeatherDisplay:10.37,2013-06-03 18:14:00,
2013-06-03 14:15:00,71.0,59.5,29.78,North,9,8.2,13.8,67,0.00,CLR,OVC,0.01,WeatherDisplay:10.37,2013-06-03 18:15:00,
2013-06-03 14:18:00,71.0,59.1,29.78,North,359,7.5,10.4,66,0.00,CLR,OVC,0.01,WeatherDisplay:10.37,2013-06-03 18:18:00,
2013-06-03 14:19:00,71.1,59.6,29.78,NNE,18,8.7,10.4,67,0.00,CLR,OVC,0.01,WeatherDisplay:10.37,2013-06-03 18:19:00,
2013-06-03 14:20:00,71.1,59.6,29.78,North,11,8.6,11.5,67,0.00,CLR,OVC,0.01,WeatherDisplay:10.37,2013-06-03 18:20:00,
2013-06-03 14:21:00,71.1,58.7,29.78,North,354,10.0,12.7,65,0.00,CLR,OVC,0.01,WeatherDisplay:10.37,2013-06-03 18:21:00,
2013-06-03 14:23:00,71.0,58.6,29.78,North,7,8.8,11.5,65,0.00,CLR,OVC,0.01,WeatherDisplay:10.37,2013-06-03 18:23:00,
2013-06-03 14:25:00,70.9,58.5,29.78,NNE,24,9.2,11.5,65,0.00,CLR,OVC,0.01,WeatherDisplay:10.37,2013-06-03 18:25:00,
2013-06-03 14:26:00,70.9,59.0,29.78,NNE,19,6.1,10.4,66,0.00,CLR,OVC,0.01,WeatherDisplay:10.37,2013-06-03 18:26:00,
2013-06-03 14:28:00,71.0,58.6,29.78,North,3,7.1,9.2,65,0.00,CLR,OVC,0.01,WeatherDisplay:10.37,2013-06-03 18:28:00,
2013-06-03 14:29:00,71.1,59.2,29.78,North,359,6.8,10.4,66,0.00,CLR,OVC,0.01,WeatherDisplay:10.37,2013-06-03 18:29:00,
2013-06-03 14:30:00,71.1,59.2,29.78,North,0,4.4,6.9,66,0.00,CLR,OVC,0.01,WeatherDisplay:10.37,2013-06-03 18:30:00,
2013-06-03 14:31:00,71.3,59.4,29.78,NNE,23,6.6,9.2,66,0.00,CLR,OVC,0.01,WeatherDisplay:10.37,2013-06-03 18:31:00,
2013-06-03 14:33:00,71.4,59.9,29.78,North,11,8.9,13.0,67,0.00,CLR,OVC,0.01,WeatherDisplay:10.37,2013-06-03 18:33:00,
2013-06-03 14:34:00,71.4,58.6,29.78,NE,34,9.4,12.7,64,0.00,CLR,OVC,0.01,WeatherDisplay:10.37,2013-06-03 18:34:00,
2013-06-03 14:35:00,71.4,59.0,29.78,NE,34,9.1,12.7,65,0.00,CLR,OVC,0.01,WeatherDisplay:10.37,2013-06-03 18:35:00,
2013-06-03 14:36:00,71.4,59.0,29.78,North,4,4.3,6.9,65,0.00,CLR,OVC,0.01,WeatherDisplay:10.37,2013-06-03 18:36:00,
2013-06-03 14:39:00,71.5,59.1,29.77,North,1,7.3,11.5,65,0.00,CLR,OVC,0.01,WeatherDisplay:10.37,2013-06-03 18:39:00,
2013-06-03 14:40:00,71.7,59.7,29.77,North,356,6.9,11.5,66,0.00,CLR,OVC,0.01,WeatherDisplay:10.37,2013-06-03 18:40:00,
2013-06-03 14:41:00,71.9,59.5,29.77,North,0,6.9,10.4,65,0.00,CLR,OVC,0.01,WeatherDisplay:10.37,2013-06-03 18:41:00,
2013-06-03 14:44:00,71.9,59.1,29.77,North,356,8.1,10.4,64,0.00,CLR,OVC,0.01,WeatherDisplay:10.37,2013-06-03 18:44:00,
2013-06-03 14:45:00,71.8,59.0,29.77,North,2,7.4,9.2,64,0.00,CLR,OVC,0.01,WeatherDisplay:10.37,2013-06-03 18:45:00,
2013-06-03 14:47:00,71.8,59.4,29.77,NNE,19,7.0,11.0,65,0.00,CLR,OVC,0.01,WeatherDisplay:10.37,2013-06-03 18:47:00,
2013-06-03 14:49:00,71.8,58.5,29.77,North,1,5.5,11.5,63,0.00,CLR,OVC,0.01,WeatherDisplay:10.37,2013-06-03 18:49:00,
2013-06-03 14:50:00,71.8,59.4,29.77,North,6,5.8,9.2,65,0.00,CLR,OVC,0.01,WeatherDisplay:10.37,2013-06-03 18:50:00,
2013-06-03 14:52:00,71.8,59.0,29.77,NNW,337,6.5,9.2,64,0.00,CLR,OVC,0.01,WeatherDisplay:10.37,2013-06-03 18:52:00,
2013-06-03 14:54:00,71.9,59.1,29.77,NNE,16,5.3,9.0,64,0.00,CLR,OVC,0.01,WeatherDisplay:10.37,2013-06-03 18:54:00,
2013-06-03 14:55:00,72.0,60.0,29.77,North,359,6.5,11.5,66,0.00,CLR,OVC,0.01,WeatherDisplay:10.37,2013-06-03 18:55:00,
2013-06-03 14:57:00,72.0,59.2,29.77,NNE,18,7.1,8.1,64,0.00,CLR,OVC,0.01,WeatherDisplay:10.37,2013-06-03 18:57:00,
2013-06-03 14:59:00,72.1,58.8,29.77,NNE,24,6.7,10.4,63,0.00,CLR,OVC,0.01,WeatherDisplay:10.37,2013-06-03 18:59:00,
2013-06-03 15:00:00,72.0,59.2,29.77,NE,48,5.0,9.2,64,0.00,CLR,OVC,0.01,WeatherDisplay:10.37,2013-06-03 19:00:00,
2013-06-03 15:01:00,72.1,59.7,29.77,NE,49,5.3,9.2,65,0.00,CLR,OVC,0.01,WeatherDisplay:10.37,2013-06-03 19:01:00,
2013-06-03 15:02:00,72.2,59.3,29.77,North,1,2.7,4.6,64,0.00,CLR,OVC,0.01,WeatherDisplay:10.37,2013-06-03 19:02:00,
2013-06-03 15:04:00,72.3,59.4,29.77,North,1,4.8,7.0,64,0.00,CLR,OVC,0.01,WeatherDisplay:10.37,2013-06-03 19:04:00,
2013-06-03 15:05:00,72.3,58.5,29.77,NE,44,5.4,11.5,62,0.00,CLR,OVC,0.01,WeatherDisplay:10.37,2013-06-03 19:05:00,
2013-06-03 15:07:00,72.3,59.0,29.77,North,353,3.6,9.0,63,0.00,CLR,OVC,0.01,WeatherDisplay:10.37,2013-06-03 19:07:00,
2013-06-03 15:09:00,72.4,60.0,29.77,NNE,28,6.9,10.0,65,0.00,CLR,OVC,0.01,WeatherDisplay:10.37,2013-06-03 19:09:00,
2013-06-03 15:10:00,72.4,60.0,29.77,NNE,23,7.8,9.2,65,0.00,CLR,OVC,0.01,WeatherDisplay:10.37,2013-06-03 19:10:00,
2013-06-03 15:11:00,72.5,59.6,29.77,North,357,7.4,10.4,64,0.00,CLR,OVC,0.01,WeatherDisplay:10.37,2013-06-03 19:11:00,
2013-06-03 15:12:00,72.5,59.2,29.77,NNE,15,5.9,6.9,63,0.00,CLR,OVC,0.01,WeatherDisplay:10.37,2013-06-03 19:12:00,
2013-06-03 15:14:00,72.5,59.6,29.77,North,352,5.0,9.2,64,0.00,CLR,OVC,0.01,WeatherDisplay:10.37,2013-06-03 19:14:00,
2013-06-03 15:15:00,72.5,59.2,29.77,North,359,7.6,10.4,63,0.00,CLR,OVC,0.01,WeatherDisplay:10.37,2013-06-03 19:15:00,
2013-06-03 15:16:00,72.5,59.2,29.77,NNW,346,6.7,9.2,63,0.00,CLR,OVC,0.01,WeatherDisplay:10.37,2013-06-03 19:16:00,
2013-06-03 15:17:00,72.5,59.2,29.77,NNE,12,4.8,8.1,63,0.00,CLR,OVC,0.01,WeatherDisplay:10.37,2013-06-03 19:17:00,
2013-06-03 15:19:00,72.6,60.2,29.77,North,353,6.7,11.0,65,0.00,CLR,OVC,0.01,WeatherDisplay:10.37,2013-06-03 19:19:00,
2013-06-03 15:20:00,72.7,59.4,29.77,North,9,8.3,11.5,63,0.00,CLR,OVC,0.01,WeatherDisplay:10.37,2013-06-03 19:20:00,
2013-06-03 15:21:00,72.7,58.9,29.77,North,3,7.3,10.4,62,0.00,CLR,OVC,0.01,WeatherDisplay:10.37,2013-06-03 19:21:00,
2013-06-03 15:22:00,72.6,58.8,29.77,North,1,7.2,13.8,62,0.00,CLR,OVC,0.01,WeatherDisplay:10.37,2013-06-03 19:22:00,
2013-06-03 15:23:00,72.6,58.4,29.77,North,354,5.6,10.4,61,0.00,CLR,OVC,0.01,WeatherDisplay:10.37,2013-06-03 19:23:00,
2013-06-03 15:24:00,72.6,58.8,29.77,North,354,5.3,6.9,62,0.00,CLR,OVC,0.01,WeatherDisplay:10.37,2013-06-03 19:24:00,
2013-06-03 15:25:00,72.6,59.3,29.77,North,354,5.2,6.9,63,0.00,CLR,OVC,0.01,WeatherDisplay:10.37,2013-06-03 19:25:00,
2013-06-03 15:27:00,72.6,59.3,29.77,North,2,6.0,10.4,63,0.00,CLR,OVC,0.01,WeatherDisplay:10.37,2013-06-03 19:27:00,
2013-06-03 15:28:00,72.6,58.4,29.77,North,357,5.6,7.0,61,0.00,CLR,OVC,0.01,WeatherDisplay:10.37,2013-06-03 19:28:00,
2013-06-03 15:29:00,72.5,59.2,29.77,North,357,4.1,8.1,63,0.00,CLR,OVC,0.01,WeatherDisplay:10.37,2013-06-03 19:29:00,
2013-06-03 15:30:00,72.7,60.3,29.77,North,353,5.8,10.4,65,0.00,CLR,OVC,0.01,WeatherDisplay:10.37,2013-06-03 19:30:00,
2013-06-03 15:32:00,72.7,58.9,29.77,North,359,10.0,12.7,62,0.00,CLR,OVC,0.01,WeatherDisplay:10.37,2013-06-03 19:32:00,
2013-06-03 15:33:00,72.6,58.4,29.77,NNW,344,8.0,11.5,61,0.00,CLR,OVC,0.01,WeatherDisplay:10.37,2013-06-03 19:33:00,
2013-06-03 15:35:00,72.6,59.3,29.77,North,355,7.6,11.5,63,0.00,CLR,OVC,0.01,WeatherDisplay:10.37,2013-06-03 19:35:00,
2013-06-03 15:36:00,72.6,59.3,29.77,North,349,7.2,11.5,63,0.00,CLR,OVC,0.01,WeatherDisplay:10.37,2013-06-03 19:36:00,
2013-06-03 15:37:00,72.6,59.3,29.77,North,355,9.1,11.5,63,0.00,CLR,OVC,0.01,WeatherDisplay:10.37,2013-06-03 19:37:00,
2013-06-03 15:39:00,72.6,58.8,29.77,North,354,8.1,11.5,62,0.00,CLR,OVC,0.01,WeatherDisplay:10.37,2013-06-03 19:39:00,
2013-06-03 15:40:00,72.6,58.8,29.77,NNW,343,8.4,11.5,62,0.00,CLR,OVC,0.01,WeatherDisplay:10.37,2013-06-03 19:40:00,
2013-06-03 15:41:00,72.6,59.3,29.78,North,350,8.2,11.5,63,0.00,CLR,OVC,0.01,WeatherDisplay:10.37,2013-06-03 19:41:00,
2013-06-03 15:42:00,72.6,59.7,29.77,NW,321,7.9,11.5,64,0.00,CLR,OVC,0.01,WeatherDisplay:10.37,2013-06-03 19:42:00,
2013-06-03 15:43:00,72.6,59.3,29.77,NNW,344,10.4,11.5,63,0.00,CLR,OVC,0.01,WeatherDisplay:10.37,2013-06-03 19:43:00,
2013-06-03 15:44:00,72.5,59.2,29.76,North,352,10.1,11.5,63,0.00,CLR,OVC,0.01,WeatherDisplay:10.37,2013-06-03 19:44:00,
2013-06-03 15:45:00,72.5,58.7,29.77,North,358,9.2,13.8,62,0.00,CLR,OVC,0.01,WeatherDisplay:10.37,2013-06-03 19:45:00,
2013-06-03 15:46:00,72.4,58.6,29.77,North,7,6.9,11.5,62,0.00,CLR,OVC,0.01,WeatherDisplay:10.37,2013-06-03 19:46:00,
2013-06-03 15:47:00,72.4,59.1,29.76,North,349,9.3,10.0,63,0.00,CLR,OVC,0.01,WeatherDisplay:10.37,2013-06-03 19:47:00,
2013-06-03 15:48:00,72.4,58.6,29.76,NNW,346,9.0,11.5,62,0.00,CLR,OVC,0.01,WeatherDisplay:10.37,2013-06-03 19:48:00,
2013-06-03 15:49:00,72.4,59.1,29.76,NNW,345,6.9,11.5,63,0.00,CLR,OVC,0.01,WeatherDisplay:10.37,2013-06-03 19:49:00,
2013-06-03 15:50:00,72.4,58.6,29.76,North,6,6.0,9.2,62,0.00,CLR,OVC,0.01,WeatherDisplay:10.37,2013-06-03 19:50:00,
2013-06-03 15:52:00,72.4,58.2,29.76,North,4,5.5,8.1,61,0.00,CLR,OVC,0.01,WeatherDisplay:10.37,2013-06-03 19:52:00,
2013-06-03 15:53:00,72.5,59.2,29.76,North,350,7.8,11.5,63,0.00,CLR,OVC,0.01,WeatherDisplay:10.37,2013-06-03 19:53:00,
2013-06-03 15:54:00,72.5,59.2,29.76,North,349,7.7,11.5,63,0.00,CLR,OVC,0.01,WeatherDisplay:10.37,2013-06-03 19:54:00,
2013-06-03 15:56:00,72.5,58.7,29.76,NNE,18,5.8,10.4,62,0.00,CLR,OVC,0.01,WeatherDisplay:10.37,2013-06-03 19:56:00,
2013-06-03 15:57:00,72.6,58.4,29.76,NNE,15,6.8,9.2,61,0.00,CLR,OVC,0.01,WeatherDisplay:10.37,2013-06-03 19:57:00,
2013-06-03 15:58:00,72.6,58.4,29.76,North,1,6.3,8.1,61,0.00,CLR,OVC,0.01,WeatherDisplay:10.37,2013-06-03 19:58:00,
2013-06-03 15:59:00,72.6,58.4,29.76,NNE,19,7.4,10.0,61,0.00,CLR,OVC,0.01,WeatherDisplay:10.37,2013-06-03 19:59:00,
2013-06-03 16:02:00,72.6,58.4,29.76,North,8,5.4,6.9,61,0.00,CLR,OVC,0.01,WeatherDisplay:10.37,2013-06-03 20:02:00,
2013-06-03 16:03:00,72.6,57.9,29.77,North,1,5.4,8.1,60,0.00,CLR,OVC,0.01,WeatherDisplay:10.37,2013-06-03 20:03:00,
2013-06-03 16:04:00,72.6,58.4,29.76,North,3,7.1,9.2,61,0.00,CLR,OVC,0.01,WeatherDisplay:10.37,2013-06-03 20:04:00,
2013-06-03 16:07:00,72.6,57.9,29.77,North,0,6.3,10.4,60,0.00,CLR,OVC,0.01,WeatherDisplay:10.37,2013-06-03 20:07:00,
2013-06-03 16:08:00,72.5,57.4,29.77,North,0,5.0,8.1,59,0.00,CLR,OVC,0.01,WeatherDisplay:10.37,2013-06-03 20:08:00,
2013-06-03 16:09:00,72.6,58.4,29.76,North,0,4.5,5.0,61,0.00,CLR,OVC,0.01,WeatherDisplay:10.37,2013-06-03 20:09:00,
2013-06-03 16:12:00,72.6,57.9,29.76,NNE,29,9.6,11.5,60,0.00,CLR,OVC,0.01,WeatherDisplay:10.37,2013-06-03 20:12:00,
2013-06-03 16:13:00,72.5,57.4,29.76,NNE,24,9.3,11.5,59,0.00,CLR,OVC,0.01,WeatherDisplay:10.37,2013-06-03 20:13:00,
2013-06-03 16:14:00,72.4,57.7,29.76,NNE,29,4.1,9.2,60,0.00,CLR,OVC,0.01,WeatherDisplay:10.37,2013-06-03 20:14:00,
2013-06-03 16:15:00,72.4,57.7,29.76,NNE,29,3.6,5.8,60,0.00,CLR,OVC,0.01,WeatherDisplay:10.37,2013-06-03 20:15:00,
2013-06-03 16:17:00,72.5,57.4,29.76,NNE,15,7.4,10.4,59,0.00,CLR,OVC,0.01,WeatherDisplay:10.37,2013-06-03 20:17:00,
2013-06-03 16:18:00,72.4,57.3,29.76,NNE,15,5.3,10.4,59,0.00,CLR,OVC,0.01,WeatherDisplay:10.37,2013-06-03 20:18:00,
2013-06-03 16:19:00,72.4,57.7,29.77,NNE,20,6.0,9.2,60,0.00,CLR,OVC,0.01,WeatherDisplay:10.37,2013-06-03 20:19:00,
2013-06-03 16:21:00,72.5,57.8,29.77,North,2,7.8,8.1,60,0.00,CLR,OVC,0.01,WeatherDisplay:10.37,2013-06-03 20:21:00,
2013-06-03 16:23:00,72.6,58.4,29.76,North,0,4.4,5.8,61,0.00,CLR,OVC,0.01,WeatherDisplay:10.37,2013-06-03 20:23:00,
2013-06-03 16:24:00,72.7,58.0,29.77,NNE,32,7.0,8.1,60,0.00,CLR,OVC,0.01,WeatherDisplay:10.37,2013-06-03 20:24:00,
2013-06-03 16:27:00,72.8,58.6,29.77,NNE,24,3.7,5.8,61,0.00,CLR,OVC,0.01,WeatherDisplay:10.37,2013-06-03 20:27:00,
2013-06-03 16:28:00,72.9,58.7,29.76,NNE,21,4.3,8.0,61,0.00,CLR,OVC,0.01,WeatherDisplay:10.37,2013-06-03 20:28:00,
2013-06-03 16:29:00,72.9,58.7,29.76,North,3,5.2,9.2,61,0.00,CLR,OVC,0.01,WeatherDisplay:10.37,2013-06-03 20:29:00,
2013-06-03 16:30:00,73.0,58.3,29.76,NNE,16,6.1,9.2,60,0.00,CLR,OVC,0.01,WeatherDisplay:10.37,2013-06-03 20:30:00,
2013-06-03 16:32:00,72.9,58.2,29.76,North,0,5.6,9.2,60,0.00,CLR,OVC,0.01,WeatherDisplay:10.37,2013-06-03 20:32:00,
2013-06-03 16:33:00,72.9,58.2,29.76,NNE,17,5.1,8.1,60,0.00,CLR,OVC,0.01,WeatherDisplay:10.37,2013-06-03 20:33:00,
2013-06-03 16:34:00,72.9,57.7,29.76,North,6,7.6,10.4,59,0.00,CLR,OVC,0.01,WeatherDisplay:10.37,2013-06-03 20:34:00,
2013-06-03 16:35:00,72.9,57.7,29.76,North,3,7.0,10.4,59,0.00,CLR,OVC,0.01,WeatherDisplay:10.37,2013-06-03 20:35:00,
2013-06-03 16:37:00,72.8,57.6,29.76,NE,34,6.8,10.4,59,0.00,CLR,OVC,0.01,WeatherDisplay:10.37,2013-06-03 20:37:00,
2013-06-03 16:38:00,72.8,57.2,29.76,NE,37,6.5,9.2,58,0.00,CLR,OVC,0.01,WeatherDisplay:10.37,2013-06-03 20:38:00,
2013-06-03 16:39:00,72.8,57.6,29.76,ENE,73,4.6,8.1,59,0.00,CLR,OVC,0.01,WeatherDisplay:10.37,2013-06-03 20:39:00,
2013-06-03 16:40:00,72.8,58.6,29.76,East,83,4.6,6.9,61,0.00,CLR,OVC,0.01,WeatherDisplay:10.37,2013-06-03 20:40:00,
2013-06-03 16:43:00,73.1,58.8,29.76,East,87,2.1,4.0,61,0.00,CLR,OVC,0.01,WeatherDisplay:10.37,2013-06-03 20:43:00,
2013-06-03 16:44:00,73.2,58.5,29.76,North,8,3.8,6.0,60,0.00,CLR,OVC,0.01,WeatherDisplay:10.37,2013-06-03 20:44:00,
2013-06-03 16:45:00,73.3,58.1,29.76,North,3,4.8,6.9,59,0.00,CLR,OVC,0.01,WeatherDisplay:10.37,2013-06-03 20:45:00,
2013-06-03 16:48:00,73.5,58.3,29.76,NE,50,3.9,6.9,59,0.00,CLR,OVC,0.01,WeatherDisplay:10.37,2013-06-03 20:48:00,
2013-06-03 16:49:00,73.5,57.8,29.76,NNE,24,3.4,5.8,58,0.00,CLR,OVC,0.01,WeatherDisplay:10.37,2013-06-03 20:49:00,
2013-06-03 16:50:00,73.5,57.8,29.76,NNE,23,3.2,5.0,58,0.00,CLR,OVC,0.01,WeatherDisplay:10.37,2013-06-03 20:50:00,
2013-06-03 16:53:00,73.6,57.9,29.76,North,4,4.5,10.4,58,0.00,CLR,OVC,0.01,WeatherDisplay:10.37,2013-06-03 20:53:00,
2013-06-03 16:54:00,73.6,58.4,29.76,North,351,4.8,6.9,59,0.00,CLR,OVC,0.01,WeatherDisplay:10.37,2013-06-03 20:54:00,
2013-06-03 16:55:00,73.6,58.4,29.76,North,354,4.4,6.9,59,0.00,CLR,OVC,0.01,WeatherDisplay:10.37,2013-06-03 20:55:00,
2013-06-03 16:56:00,73.6,57.9,29.76,North,11,6.5,10.4,58,0.00,CLR,OVC,0.01,WeatherDisplay:10.37,2013-06-03 20:56:00,
2013-06-03 16:58:00,73.4,57.7,29.77,North,4,3.2,8.1,58,0.00,CLR,OVC,0.01,WeatherDisplay:10.37,2013-06-03 20:58:00,
2013-06-03 17:00:00,73.4,58.2,29.77,North,356,5.4,10.4,59,0.00,CLR,OVC,0.01,WeatherDisplay:10.37,2013-06-03 21:00:00,
2013-06-03 17:01:00,73.3,58.1,29.76,North,351,5.7,8.1,59,0.00,CLR,OVC,0.01,WeatherDisplay:10.37,2013-06-03 21:01:00,
2013-06-03 17:03:00,73.2,57.5,29.77,North,11,8.6,11.5,58,0.00,CLR,OVC,0.01,WeatherDisplay:10.37,2013-06-03 21:03:00,
2013-06-03 17:05:00,73.0,57.3,29.77,North,5,8.0,11.5,58,0.00,CLR,OVC,0.01,WeatherDisplay:10.37,2013-06-03 21:05:00,
2013-06-03 17:06:00,72.9,57.3,29.77,NNE,22,7.2,10.4,58,0.00,CLR,OVC,0.01,WeatherDisplay:10.37,2013-06-03 21:06:00,
2013-06-03 17:08:00,72.6,57.9,29.76,NE,40,6.6,9.0,60,0.00,CLR,OVC,0.01,WeatherDisplay:10.37,2013-06-03 21:08:00,
2013-06-03 17:10:00,72.6,57.9,29.77,NNE,28,5.5,10.4,60,0.00,CLR,OVC,0.01,WeatherDisplay:10.37,2013-06-03 21:10:00,
2013-06-03 17:11:00,72.6,57.9,29.77,NNE,28,4.6,5.8,60,0.00,CLR,OVC,0.01,WeatherDisplay:10.37,2013-06-03 21:11:00,
2013-06-03 17:12:00,72.6,58.4,29.77,NNE,28,3.7,5.8,61,0.00,CLR,OVC,0.01,WeatherDisplay:10.37,2013-06-03 21:12:00,
2013-06-03 17:14:00,72.8,57.6,29.77,NNE,24,2.9,4.6,59,0.00,CLR,OVC,0.01,WeatherDisplay:10.37,2013-06-03 21:14:00,
2013-06-03 17:15:00,72.9,58.2,29.77,NNE,24,3.9,5.0,60,0.00,CLR,OVC,0.01,WeatherDisplay:10.37,2013-06-03 21:15:00,
2013-06-03 17:16:00,72.9,58.2,29.76,NNE,23,4.5,6.0,60,0.00,CLR,OVC,0.01,WeatherDisplay:10.37,2013-06-03 21:16:00,
2013-06-03 17:17:00,73.0,58.3,29.77,NNE,21,5.1,8.0,60,0.00,CLR,OVC,0.01,WeatherDisplay:10.37,2013-06-03 21:17:00,
2013-06-03 17:20:00,73.0,57.8,29.76,North,3,5.7,8.1,59,0.00,CLR,OVC,0.01,WeatherDisplay:10.37,2013-06-03 21:20:00,
2013-06-03 17:21:00,73.0,57.8,29.76,North,0,4.7,6.9,59,0.00,CLR,OVC,0.01,WeatherDisplay:10.37,2013-06-03 21:21:00,
2013-06-03 17:22:00,73.0,57.8,29.76,North,354,5.1,6.9,59,0.00,CLR,OVC,0.01,WeatherDisplay:10.37,2013-06-03 21:22:00,
2013-06-03 17:25:00,73.0,57.8,29.76,North,0,4.7,9.2,59,0.00,CLR,OVC,0.01,WeatherDisplay:10.37,2013-06-03 21:25:00,
2013-06-03 17:27:00,73.0,57.8,29.77,North,356,5.6,9.0,59,0.00,CLR,OVC,0.01,WeatherDisplay:10.37,2013-06-03 21:27:00,
2013-06-03 17:30:00,73.0,57.8,29.76,NNE,19,5.1,5.8,59,0.00,CLR,OVC,0.01,WeatherDisplay:10.37,2013-06-03 21:30:00,
2013-06-03 17:32:00,72.9,57.3,29.76,NE,51,6.2,9.2,58,0.00,CLR,OVC,0.01,WeatherDisplay:10.37,2013-06-03 21:32:00,
2013-06-03 17:35:00,72.7,57.5,29.76,NNE,17,4.2,6.9,59,0.00,CLR,OVC,0.01,WeatherDisplay:10.37,2013-06-03 21:35:00,
2013-06-03 17:36:00,72.7,57.5,29.77,NNE,18,3.8,8.1,59,0.00,CLR,OVC,0.01,WeatherDisplay:10.37,2013-06-03 21:36:00,
2013-06-03 17:37:00,72.7,57.1,29.76,NNE,13,6.1,9.2,58,0.00,CLR,OVC,0.01,WeatherDisplay:10.37,2013-06-03 21:37:00,
2013-06-03 17:40:00,72.4,56.8,29.76,North,3,5.2,8.1,58,0.00,CLR,OVC,0.01,WeatherDisplay:10.37,2013-06-03 21:40:00,
2013-06-03 17:41:00,72.4,57.3,29.76,North,0,5.0,6.9,59,0.00,CLR,OVC,0.01,WeatherDisplay:10.37,2013-06-03 21:41:00,
2013-06-03 17:42:00,72.4,57.3,29.76,North,0,3.9,6.9,59,0.00,CLR,OVC,0.01,WeatherDisplay:10.37,2013-06-03 21:42:00,
2013-06-03 17:43:00,72.4,57.3,29.76,North,11,5.1,8.0,59,0.00,CLR,OVC,0.01,WeatherDisplay:10.37,2013-06-03 21:43:00,
2013-06-03 17:45:00,72.4,57.3,29.76,North,7,6.6,9.2,59,0.00,CLR,OVC,0.01,WeatherDisplay:10.37,2013-06-03 21:45:00,
2013-06-03 17:46:00,72.4,57.3,29.76,North,0,5.7,8.1,59,0.00,CLR,OVC,0.01,WeatherDisplay:10.37,2013-06-03 21:46:00,
2013-06-03 17:47:00,72.3,57.2,29.76,North,0,4.4,6.9,59,0.00,CLR,OVC,0.01,WeatherDisplay:10.37,2013-06-03 21:47:00,
2013-06-03 17:48:00,72.4,57.3,29.77,North,7,5.7,6.9,59,0.00,CLR,OVC,0.01,WeatherDisplay:10.37,2013-06-03 21:48:00,
2013-06-03 17:50:00,72.4,57.7,29.76,North,0,5.5,8.1,60,0.00,CLR,OVC,0.01,WeatherDisplay:10.37,2013-06-03 21:50:00,
2013-06-03 17:52:00,72.4,57.3,29.76,North,0,4.6,6.9,59,0.00,CLR,OVC,0.01,WeatherDisplay:10.37,2013-06-03 21:52:00,
2013-06-03 17:53:00,72.4,57.3,29.76,North,7,6.2,8.1,59,0.00,CLR,OVC,0.01,WeatherDisplay:10.37,2013-06-03 21:53:00,
2013-06-03 17:55:00,72.4,57.7,29.77,NNE,12,4.7,5.8,60,0.00,CLR,OVC,0.01,WeatherDisplay:10.37,2013-06-03 21:55:00,
2013-06-03 17:57:00,72.4,57.3,29.76,NNE,12,5.1,6.0,59,0.00,CLR,OVC,0.01,WeatherDisplay:10.37,2013-06-03 21:57:00,
2013-06-03 17:58:00,72.4,57.7,29.76,North,0,5.5,6.9,60,0.00,CLR,OVC,0.01,WeatherDisplay:10.37,2013-06-03 21:58:00,
2013-06-03 17:59:00,72.4,58.2,29.76,NNE,23,5.3,6.9,61,0.00,CLR,OVC,0.01,WeatherDisplay:10.37,2013-06-03 21:59:00,
2013-06-03 18:01:00,72.4,57.3,29.77,NNE,16,6.4,9.2,59,0.00,CLR,OVC,0.01,WeatherDisplay:10.37,2013-06-03 22:01:00,
2013-06-03 18:02:00,72.4,57.3,29.77,North,0,6.0,8.1,59,0.00,CLR,OVC,0.01,WeatherDisplay:10.37,2013-06-03 22:02:00,
2013-06-03 18:03:00,72.4,57.3,29.76,North,0,5.4,7.0,59,0.00,CLR,OVC,0.01,WeatherDisplay:10.37,2013-06-03 22:03:00,
2013-06-03 18:04:00,72.4,57.3,29.76,North,8,5.6,9.2,59,0.00,CLR,OVC,0.01,WeatherDisplay:10.37,2013-06-03 22:04:00,
2013-06-03 18:07:00,72.3,57.2,29.76,NNE,13,5.7,8.1,59,0.00,CLR,OVC,0.01,WeatherDisplay:10.37,2013-06-03 22:07:00,
2013-06-03 18:09:00,72.3,57.2,29.76,NNE,13,3.1,5.0,59,0.00,CLR,OVC,0.01,WeatherDisplay:10.37,2013-06-03 22:09:00,
2013-06-03 18:12:00,72.3,56.7,29.76,North,6,6.6,9.2,58,0.00,CLR,OVC,0.01,WeatherDisplay:10.37,2013-06-03 22:12:00,
2013-06-03 18:14:00,72.3,56.7,29.76,NNE,26,7.0,11.0,58,0.00,CLR,OVC,0.01,WeatherDisplay:10.37,2013-06-03 22:14:00,
2013-06-03 18:15:00,72.2,56.6,29.76,NNE,20,8.3,11.5,58,0.00,CLR,OVC,0.01,WeatherDisplay:10.37,2013-06-03 22:15:00,
2013-06-03 18:17:00,72.0,56.4,29.76,North,11,7.1,10.4,58,0.00,CLR,OVC,0.01,WeatherDisplay:10.37,2013-06-03 22:17:00,
2013-06-03 18:18:00,71.9,56.8,29.77,NNE,19,6.8,9.0,59,0.00,CLR,OVC,0.01,WeatherDisplay:10.37,2013-06-03 22:18:00,
2013-06-03 18:19:00,71.8,56.2,29.76,NNE,14,6.8,11.5,58,0.00,CLR,OVC,0.01,WeatherDisplay:10.37,2013-06-03 22:19:00,
2013-06-03 18:20:00,71.8,56.7,29.76,NNE,26,6.3,10.0,59,0.00,CLR,OVC,0.01,WeatherDisplay:10.37,2013-06-03 22:20:00,
2013-06-03 18:22:00,71.6,55.6,29.76,NNE,18,7.7,10.4,57,0.00,CLR,OVC,0.01,WeatherDisplay:10.37,2013-06-03 22:22:00,
2013-06-03 18:23:00,71.5,55.9,29.76,NNE,20,6.8,11.5,58,0.00,CLR,OVC,0.01,WeatherDisplay:10.37,2013-06-03 22:23:00,
2013-06-03 18:24:00,71.3,55.3,29.76,NNE,16,7.7,10.4,57,0.00,CLR,OVC,0.01,WeatherDisplay:10.37,2013-06-03 22:24:00,
2013-06-03 18:25:00,71.2,55.7,29.76,NNE,24,6.5,9.2,58,0.00,CLR,OVC,0.01,WeatherDisplay:10.37,2013-06-03 22:25:00,
2013-06-03 18:27:00,71.1,56.0,29.76,North,1,6.6,10.4,59,0.00,CLR,OVC,0.01,WeatherDisplay:10.37,2013-06-03 22:27:00,
2013-06-03 18:28:00,71.1,55.6,29.77,NNE,29,6.0,9.2,58,0.00,CLR,OVC,0.01,WeatherDisplay:10.37,2013-06-03 22:28:00,
2013-06-03 18:29:00,71.0,55.9,29.77,NNE,20,5.1,8.1,59,0.00,CLR,OVC,0.01,WeatherDisplay:10.37,2013-06-03 22:29:00,
2013-06-03 18:30:00,71.0,55.9,29.77,NNE,20,4.3,8.1,59,0.00,CLR,OVC,0.01,WeatherDisplay:10.37,2013-06-03 22:30:00,
2013-06-03 18:32:00,70.8,56.2,29.77,NNE,14,4.3,6.9,60,0.00,CLR,OVC,0.01,WeatherDisplay:10.37,2013-06-03 22:32:00,
2013-06-03 18:33:00,70.6,56.0,29.77,NNE,14,4.2,5.8,60,0.00,CLR,OVC,0.01,WeatherDisplay:10.37,2013-06-03 22:33:00,
2013-06-03 18:34:00,70.5,55.9,29.77,NNE,16,4.3,8.0,60,0.00,CLR,OVC,0.01,WeatherDisplay:10.37,2013-06-03 22:34:00,
2013-06-03 18:35:00,70.4,55.4,29.77,NNE,21,5.8,8.1,59,0.00,CLR,OVC,0.01,WeatherDisplay:10.37,2013-06-03 22:35:00,
2013-06-03 18:37:00,70.2,55.7,29.77,NNE,13,4.6,6.9,60,0.00,CLR,OVC,0.01,WeatherDisplay:10.37,2013-06-03 22:37:00,
2013-06-03 18:39:00,70.0,55.5,29.77,NNE,12,4.2,5.8,60,0.00,CLR,OVC,0.01,WeatherDisplay:10.37,2013-06-03 22:39:00,
2013-06-03 18:41:00,69.8,55.7,29.77,North,11,3.4,4.6,61,0.00,CLR,OVC,0.01,WeatherDisplay:10.37,2013-06-03 22:41:00,
2013-06-03 18:42:00,69.7,55.6,29.77,North,11,3.8,5.0,61,0.00,CLR,OVC,0.01,WeatherDisplay:10.37,2013-06-03 22:42:00,
2013-06-03 18:44:00,69.6,55.6,29.77,North,11,3.1,3.5,61,0.00,CLR,OVC,0.01,WeatherDisplay:10.37,2013-06-03 22:44:00,
2013-06-03 18:46:00,69.5,55.9,29.77,North,11,4.1,6.0,62,0.00,CLR,OVC,0.01,WeatherDisplay:10.37,2013-06-03 22:46:00,
2013-06-03 18:48:00,69.3,55.7,29.77,North,11,3.8,4.6,62,0.00,CLR,OVC,0.01,WeatherDisplay:10.37,2013-06-03 22:48:00,
2013-06-03 18:49:00,69.3,55.3,29.78,North,11,3.2,4.6,61,0.00,CLR,OVC,0.01,WeatherDisplay:10.37,2013-06-03 22:49:00,
2013-06-03 18:50:00,69.3,55.3,29.77,North,11,3.0,6.0,61,0.00,CLR,OVC,0.01,WeatherDisplay:10.37,2013-06-03 22:50:00,
2013-06-03 18:51:00,69.2,55.2,29.77,North,11,4.5,5.8,61,0.00,CLR,OVC,0.01,WeatherDisplay:10.37,2013-06-03 22:51:00,
2013-06-03 18:53:00,69.0,55.4,29.78,North,11,3.7,4.6,62,0.00,CLR,OVC,0.01,WeatherDisplay:10.37,2013-06-03 22:53:00,
2013-06-03 18:54:00,68.9,54.9,29.77,North,11,3.6,4.6,61,0.00,CLR,OVC,0.01,WeatherDisplay:10.37,2013-06-03 22:54:00,
2013-06-03 18:55:00,68.9,55.3,29.77,North,11,3.6,4.6,62,0.00,CLR,OVC,0.01,WeatherDisplay:10.37,2013-06-03 22:55:00,
2013-06-03 18:56:00,68.8,55.2,29.77,North,11,3.3,4.6,62,0.00,CLR,OVC,0.01,WeatherDisplay:10.37,2013-06-03 22:56:00,
2013-06-03 18:58:00,68.6,55.1,29.77,North,11,2.6,4.6,62,0.00,CLR,OVC,0.01,WeatherDisplay:10.37,2013-06-03 22:58:00,
2013-06-03 18:59:00,68.6,55.1,29.77,North,11,1.1,3.5,62,0.00,CLR,OVC,0.01,WeatherDisplay:10.37,2013-06-03 22:59:00,
2013-06-03 19:00:00,68.6,55.5,29.77,North,11,1.7,3.5,63,0.00,CLR,OVC,0.01,WeatherDisplay:10.37,2013-06-03 23:00:00,
2013-06-03 19:01:00,68.5,55.4,29.77,North,11,1.7,3.5,63,0.00,CLR,OVC,0.01,WeatherDisplay:10.37,2013-06-03 23:01:00,
2013-06-03 19:04:00,68.4,55.3,29.77,North,11,3.0,4.6,63,0.00,CLR,OVC,0.01,WeatherDisplay:10.37,2013-06-03 23:04:00,
2013-06-03 19:05:00,68.4,55.3,29.77,North,11,2.7,4.6,63,0.00,CLR,OVC,0.01,WeatherDisplay:10.37,2013-06-03 23:05:00,
2013-06-03 19:06:00,68.4,55.3,29.77,North,11,1.6,3.5,63,0.00,CLR,OVC,0.01,WeatherDisplay:10.37,2013-06-03 23:06:00,
2013-06-03 19:10:00,68.6,55.9,29.77,North,11,1.6,4.0,64,0.00,CLR,OVC,0.01,WeatherDisplay:10.37,2013-06-03 23:10:00,
2013-06-03 19:12:00,68.8,56.1,29.78,North,11,1.2,3.5,64,0.00,CLR,OVC,0.01,WeatherDisplay:10.37,2013-06-03 23:12:00,
2013-06-03 19:15:00,69.0,56.3,29.77,North,11,1.8,3.5,64,0.00,CLR,OVC,0.01,WeatherDisplay:10.37,2013-06-03 23:15:00,
2013-06-03 19:16:00,69.1,56.4,29.78,North,11,2.4,3.5,64,0.00,CLR,OVC,0.01,WeatherDisplay:10.37,2013-06-03 23:16:00,
2013-06-03 19:17:00,69.2,56.1,29.77,North,11,1.3,3.5,63,0.00,CLR,OVC,0.01,WeatherDisplay:10.37,2013-06-03 23:17:00,
2013-06-03 19:20:00,69.3,56.6,29.77,North,11,0.2,2.3,64,0.00,CLR,OVC,0.01,WeatherDisplay:10.37,2013-06-03 23:20:00,
2013-06-03 19:22:00,69.6,56.9,29.78,North,11,0.0,0.0,64,0.00,CLR,OVC,0.01,WeatherDisplay:10.37,2013-06-03 23:22:00,
2013-06-03 19:23:00,69.6,56.9,29.78,North,11,0.0,0.0,64,0.00,CLR,OVC,0.01,WeatherDisplay:10.37,2013-06-03 23:23:00,
2013-06-03 19:25:00,69.7,57.0,29.77,North,11,1.1,2.3,64,0.00,CLR,OVC,0.01,WeatherDisplay:10.37,2013-06-03 23:25:00,
2013-06-03 19:28:00,69.9,56.3,29.77,North,11,1.7,3.5,62,0.00,CLR,OVC,0.01,WeatherDisplay:10.37,2013-06-03 23:28:00,
2013-06-03 19:30:00,69.9,55.8,29.77,North,11,3.8,4.6,61,0.00,CLR,OVC,0.01,WeatherDisplay:10.37,2013-06-03 23:30:00,
2013-06-03 19:33:00,69.8,56.2,29.78,North,11,2.3,3.5,62,0.00,CLR,OVC,0.01,WeatherDisplay:10.37,2013-06-03 23:33:00,
2013-06-03 19:35:00,69.9,56.3,29.77,North,11,0.6,2.0,62,0.00,CLR,OVC,0.01,WeatherDisplay:10.37,2013-06-03 23:35:00,
2013-06-03 19:36:00,69.9,56.3,29.77,North,11,1.2,2.3,62,0.00,CLR,OVC,0.01,WeatherDisplay:10.37,2013-06-03 23:36:00,
2013-06-03 19:38:00,70.0,56.4,29.77,North,11,0.8,3.0,62,0.00,CLR,OVC,0.01,WeatherDisplay:10.37,2013-06-03 23:38:00,
2013-06-03 19:40:00,70.0,56.4,29.78,North,11,1.5,3.5,62,0.00,CLR,OVC,0.01,WeatherDisplay:10.37,2013-06-03 23:40:00,
2013-06-03 19:41:00,70.0,56.4,29.77,North,11,1.8,3.5,62,0.00,CLR,OVC,0.01,WeatherDisplay:10.37,2013-06-03 23:41:00,
2013-06-03 19:42:00,70.0,56.8,29.77,North,11,1.9,3.5,63,0.00,CLR,OVC,0.01,WeatherDisplay:10.37,2013-06-03 23:42:00,
2013-06-03 19:43:00,70.0,56.8,29.78,North,11,1.1,3.5,63,0.00,CLR,OVC,0.01,WeatherDisplay:10.37,2013-06-03 23:43:00,
2013-06-03 19:44:00,70.0,56.8,29.78,North,11,1.4,2.3,63,0.00,CLR,OVC,0.01,WeatherDisplay:10.37,2013-06-03 23:44:00,
2013-06-03 19:45:00,70.0,56.8,29.78,North,11,0.3,2.3,63,0.00,CLR,OVC,0.01,WeatherDisplay:10.37,2013-06-03 23:45:00,
2013-06-03 19:47:00,69.9,56.7,29.78,North,11,1.5,3.5,63,0.00,CLR,OVC,0.01,WeatherDisplay:10.37,2013-06-03 23:47:00,
2013-06-03 19:48:00,70.0,56.8,29.78,North,11,1.5,3.5,63,0.00,CLR,OVC,0.01,WeatherDisplay:10.37,2013-06-03 23:48:00,
2013-06-03 19:49:00,70.0,56.8,29.78,NNE,12,1.6,2.3,63,0.00,CLR,OVC,0.01,WeatherDisplay:10.37,2013-06-03 23:49:00,
2013-06-03 19:50:00,69.9,57.2,29.78,NNE,12,2.0,3.5,64,0.00,CLR,OVC,0.01,WeatherDisplay:10.37,2013-06-03 23:50:00,
2013-06-03 19:52:00,70.0,57.7,29.78,NNE,12,2.1,3.5,65,0.00,CLR,OVC,0.01,WeatherDisplay:10.37,2013-06-03 23:52:00,
2013-06-03 19:54:00,69.9,57.6,29.78,NNE,12,2.4,3.5,65,0.00,CLR,OVC,0.01,WeatherDisplay:10.37,2013-06-03 23:54:00,
2013-06-03 19:57:00,69.8,57.5,29.78,NNE,12,2.7,3.5,65,0.00,CLR,OVC,0.01,WeatherDisplay:10.37,2013-06-03 23:57:00,
2013-06-03 19:58:00,69.7,57.4,29.78,NNE,12,3.4,5.0,65,0.00,CLR,OVC,0.01,WeatherDisplay:10.37,2013-06-03 23:58:00,
2013-06-03 19:59:00,69.6,56.9,29.78,NNE,12,3.1,4.6,64,0.00,CLR,OVC,0.01,WeatherDisplay:10.37,2013-06-03 23:59:00,
2013-06-03 20:00:00,69.5,56.8,29.78,NNE,12,2.7,4.6,64,0.00,CLR,OVC,0.01,WeatherDisplay:10.37,2013-06-04 00:00:00,
2013-06-03 20:02:00,69.3,57.0,29.78,NNE,12,1.7,3.5,65,0.00,CLR,OVC,0.01,WeatherDisplay:10.37,2013-06-04 00:02:00,
2013-06-03 20:03:00,69.1,56.8,29.78,NNE,12,1.9,2.3,65,0.00,CLR,OVC,0.01,WeatherDisplay:10.37,2013-06-04 00:03:00,
2013-06-03 20:04:00,69.0,57.2,29.78,NNE,12,1.7,2.3,66,0.00,CLR,OVC,0.01,WeatherDisplay:10.37,2013-06-04 00:04:00,
2013-06-03 20:05:00,68.9,57.5,29.78,NNE,12,2.1,2.3,67,0.00,CLR,OVC,0.01,WeatherDisplay:10.37,2013-06-04 00:05:00,
2013-06-03 20:07:00,68.8,57.4,29.79,NNE,12,2.8,3.5,67,0.00,CLR,OVC,0.01,WeatherDisplay:10.37,2013-06-04 00:07:00,
2013-06-03 20:08:00,68.8,57.4,29.78,NNE,12,3.1,4.0,67,0.00,CLR,OVC,0.01,WeatherDisplay:10.37,2013-06-04 00:08:00,
2013-06-03 20:09:00,68.7,56.9,29.78,NNE,12,3.8,4.6,66,0.00,CLR,OVC,0.01,WeatherDisplay:10.37,2013-06-04 00:09:00,
2013-06-03 20:11:00,68.4,56.6,29.78,NNE,12,2.5,3.5,66,0.00,CLR,OVC,0.01,WeatherDisplay:10.37,2013-06-04 00:11:00,
2013-06-03 20:12:00,68.3,56.5,29.78,NNE,12,2.8,4.0,66,0.00,CLR,OVC,0.01,WeatherDisplay:10.37,2013-06-04 00:12:00,
2013-06-03 20:13:00,68.2,56.4,29.78,NNE,12,2.9,3.5,66,0.00,CLR,OVC,0.01,WeatherDisplay:10.37,2013-06-04 00:13:00,
2013-06-03 20:14:00,68.0,56.2,29.78,NNE,12,3.4,4.6,66,0.00,CLR,OVC,0.01,WeatherDisplay:10.37,2013-06-04 00:14:00,
2013-06-03 20:16:00,67.8,56.4,29.78,NNE,33,3.6,4.6,67,0.00,CLR,OVC,0.01,WeatherDisplay:10.37,2013-06-04 00:16:00,
2013-06-03 20:18:00,67.5,55.7,29.79,NNE,33,3.5,4.6,66,0.00,CLR,OVC,0.01,WeatherDisplay:10.37,2013-06-04 00:18:00,
2013-06-03 20:19:00,67.3,55.5,29.78,NNE,33,3.8,4.6,66,0.00,CLR,OVC,0.01,WeatherDisplay:10.37,2013-06-04 00:19:00,
2013-06-03 20:21:00,67.0,55.3,29.79,NNE,33,3.9,4.6,66,0.00,CLR,OVC,0.01,WeatherDisplay:10.37,2013-06-04 00:21:00,
2013-06-03 20:23:00,66.7,55.4,29.78,NNE,33,4.5,5.8,67,0.00,CLR,OVC,0.01,WeatherDisplay:10.37,2013-06-04 00:23:00,
2013-06-03 20:24:00,66.6,55.3,29.79,NNE,33,4.3,5.8,67,0.00,CLR,OVC,0.01,WeatherDisplay:10.37,2013-06-04 00:24:00,
2013-06-03 20:27:00,66.3,55.4,29.79,NNE,33,3.8,5.0,68,0.00,CLR,OVC,0.01,WeatherDisplay:10.37,2013-06-04 00:27:00,
2013-06-03 20:28:00,66.1,55.6,29.79,NNE,33,3.3,4.6,69,0.00,CLR,OVC,0.01,WeatherDisplay:10.37,2013-06-04 00:28:00,
2013-06-03 20:29:00,66.0,55.1,29.79,NNE,33,3.1,3.5,68,0.00,CLR,OVC,0.01,WeatherDisplay:10.37,2013-06-04 00:29:00,
2013-06-03 20:30:00,66.0,55.5,29.79,NNE,33,3.0,4.0,69,0.00,CLR,OVC,0.01,WeatherDisplay:10.37,2013-06-04 00:30:00,
2013-06-03 20:32:00,65.7,55.6,29.78,NNE,33,2.3,3.5,70,0.00,CLR,OVC,0.01,WeatherDisplay:10.37,2013-06-04 00:32:00,
2013-06-03 20:33:00,65.5,55.8,29.79,NNE,33,1.8,3.5,71,0.00,CLR,OVC,0.01,WeatherDisplay:10.37,2013-06-04 00:33:00,
2013-06-03 20:34:00,65.2,55.9,29.79,NNE,33,1.4,2.3,72,0.00,CLR,OVC,0.01,WeatherDisplay:10.37,2013-06-04 00:34:00,
2013-06-03 20:35:00,65.2,55.9,29.79,NNE,33,1.4,2.3,72,0.00,CLR,OVC,0.01,WeatherDisplay:10.37,2013-06-04 00:35:00,
2013-06-03 20:38:00,64.6,55.7,29.79,NNE,33,1.6,2.3,73,0.00,CLR,OVC,0.01,WeatherDisplay:10.37,2013-06-04 00:38:00,
2013-06-03 20:39:00,64.2,55.4,29.79,NNE,33,2.7,4.0,73,0.00,CLR,OVC,0.01,WeatherDisplay:10.37,2013-06-04 00:39:00,
2013-06-03 20:40:00,64.1,55.3,29.79,NNE,33,2.9,4.0,73,0.00,CLR,OVC,0.01,WeatherDisplay:10.37,2013-06-04 00:40:00,
2013-06-03 20:43:00,63.5,55.4,29.79,NNE,33,3.3,3.5,75,0.00,CLR,OVC,0.01,WeatherDisplay:10.37,2013-06-04 00:43:00,
2013-06-03 20:45:00,63.2,55.5,29.79,NNE,33,3.2,4.0,76,0.00,CLR,OVC,0.01,WeatherDisplay:10.37,2013-06-04 00:45:00,
2013-06-03 20:46:00,63.0,55.3,29.79,NNE,33,3.7,4.0,76,0.00,CLR,OVC,0.01,WeatherDisplay:10.37,2013-06-04 00:46:00,
2013-06-03 20:48:00,62.6,55.3,29.79,NNE,33,4.2,4.6,77,0.00,CLR,OVC,0.01,WeatherDisplay:10.37,2013-06-04 00:48:00,
2013-06-03 20:49:00,62.5,55.2,29.79,NNE,33,3.7,4.6,77,0.00,CLR,OVC,0.01,WeatherDisplay:10.37,2013-06-04 00:49:00,
2013-06-03 20:50:00,62.3,55.0,29.79,NNE,33,3.6,4.0,77,0.00,CLR,OVC,0.01,WeatherDisplay:10.37,2013-06-04 00:50:00,
2013-06-03 20:51:00,62.1,55.2,29.79,NNE,33,4.6,5.0,78,0.00,CLR,OVC,0.01,WeatherDisplay:10.37,2013-06-04 00:51:00,
2013-06-03 20:53:00,61.9,55.0,29.80,NE,34,4.7,5.8,78,0.00,CLR,OVC,0.01,WeatherDisplay:10.37,2013-06-04 00:53:00,
2013-06-03 20:54:00,61.9,55.0,29.80,NE,34,4.9,5.8,78,0.00,CLR,OVC,0.01,WeatherDisplay:10.37,2013-06-04 00:54:00,
2013-06-03 20:55:00,61.7,54.8,29.79,NE,39,5.5,6.0,78,0.00,CLR,OVC,0.01,WeatherDisplay:10.37,2013-06-04 00:55:00,
2013-06-03 20:56:00,61.6,55.0,29.80,NE,41,5.8,6.9,79,0.00,CLR,OVC,0.01,WeatherDisplay:10.37,2013-06-04 00:56:00,
2013-06-03 20:58:00,61.4,54.8,29.80,NE,41,5.2,5.8,79,0.00,CLR,OVC,0.01,WeatherDisplay:10.37,2013-06-04 00:58:00,
2013-06-03 20:59:00,61.4,54.8,29.80,NE,41,4.9,5.8,79,0.00,CLR,OVC,0.01,WeatherDisplay:10.37,2013-06-04 00:59:00,
2013-06-03 21:00:00,61.2,54.6,29.80,NE,41,4.5,5.0,79,0.00,CLR,OVC,0.01,WeatherDisplay:10.37,2013-06-04 01:00:00,
2013-06-03 21:01:00,61.2,54.6,29.79,NE,41,4.5,5.0,79,0.00,CLR,OVC,0.01,WeatherDisplay:10.37,2013-06-04 01:01:00,
2013-06-03 21:02:00,61.1,54.5,29.80,NE,41,4.0,5.8,79,0.00,CLR,OVC,0.01,WeatherDisplay:10.37,2013-06-04 01:02:00,
2013-06-03 21:03:00,61.0,54.8,29.79,NE,41,3.6,4.6,80,0.00,CLR,OVC,0.01,WeatherDisplay:10.37,2013-06-04 01:03:00,
2013-06-03 21:04:00,60.9,54.7,29.80,NE,41,3.8,4.0,80,0.00,CLR,OVC,0.01,WeatherDisplay:10.37,2013-06-04 01:04:00,
2013-06-03 21:06:00,60.8,54.6,29.80,NE,41,2.8,4.0,80,0.00,CLR,OVC,0.01,WeatherDisplay:10.37,2013-06-04 01:06:00,
2013-06-03 21:07:00,60.6,54.7,29.80,NE,41,3.2,3.5,81,0.00,CLR,OVC,0.01,WeatherDisplay:10.37,2013-06-04 01:07:00,
2013-06-03 21:09:00,60.5,54.6,29.80,NE,41,3.2,3.5,81,0.00,CLR,OVC,0.01,WeatherDisplay:10.37,2013-06-04 01:09:00,
2013-06-03 21:11:00,60.3,54.4,29.80,NE,41,4.1,6.0,81,0.00,CLR,OVC,0.01,WeatherDisplay:10.37,2013-06-04 01:11:00,
2013-06-03 21:12:00,60.2,54.3,29.80,NE,41,4.4,5.8,81,0.00,CLR,OVC,0.01,WeatherDisplay:10.37,2013-06-04 01:12:00,
2013-06-03 21:14:00,60.0,54.5,29.80,NE,41,4.7,5.8,82,0.00,CLR,OVC,0.01,WeatherDisplay:10.37,2013-06-04 01:14:00,
2013-06-03 21:16:00,59.9,54.4,29.80,NE,42,4.9,5.8,82,0.00,CLR,OVC,0.01,WeatherDisplay:10.37,2013-06-04 01:16:00,
2013-06-03 21:17:00,59.8,54.3,29.80,NE,42,4.7,6.0,82,0.00,CLR,OVC,0.01,WeatherDisplay:10.37,2013-06-04 01:17:00,
2013-06-03 21:18:00,59.7,54.2,29.80,NE,42,5.2,5.8,82,0.00,CLR,OVC,0.01,WeatherDisplay:10.37,2013-06-04 01:18:00,
2013-06-03 21:19:00,59.6,54.1,29.80,NE,48,5.3,5.8,82,0.00,CLR,OVC,0.01,WeatherDisplay:10.37,2013-06-04 01:19:00,
2013-06-03 21:20:00,59.6,54.1,29.80,NE,51,5.2,6.0,82,0.00,CLR,OVC,0.01,WeatherDisplay:10.37,2013-06-04 01:20:00,
2013-06-03 21:21:00,59.5,54.0,29.81,NE,51,4.9,6.0,82,0.00,CLR,OVC,0.01,WeatherDisplay:10.37,2013-06-04 01:21:00,
2013-06-03 21:22:00,59.5,54.0,29.80,NE,51,5.2,6.0,82,0.00,CLR,OVC,0.01,WeatherDisplay:10.37,2013-06-04 01:22:00,
2013-06-03 21:23:00,59.4,53.9,29.81,NE,51,5.2,6.0,82,0.00,CLR,OVC,0.01,WeatherDisplay:10.37,2013-06-04 01:23:00,
2013-06-03 21:24:00,59.4,53.9,29.81,NE,51,4.1,5.8,82,0.00,CLR,OVC,0.01,WeatherDisplay:10.37,2013-06-04 01:24:00,
2013-06-03 21:25:00,59.3,54.1,29.80,NE,51,2.4,4.6,83,0.00,CLR,OVC,0.01,WeatherDisplay:10.37,2013-06-04 01:25:00,
2013-06-03 21:27:00,59.2,54.0,29.81,NE,51,2.6,3.5,83,0.00,CLR,OVC,0.01,WeatherDisplay:10.37,2013-06-04 01:27:00,
2013-06-03 21:28:00,59.1,53.9,29.81,NE,47,3.4,5.0,83,0.00,CLR,OVC,0.01,WeatherDisplay:10.37,2013-06-04 01:28:00,
2013-06-03 21:29:00,59.1,53.9,29.81,NE,36,4.1,5.0,83,0.00,CLR,OVC,0.01,WeatherDisplay:10.37,2013-06-04 01:29:00,
2013-06-03 21:30:00,59.0,54.2,29.81,NE,35,3.6,4.6,84,0.00,CLR,OVC,0.01,WeatherDisplay:10.37,2013-06-04 01:30:00,
2013-06-03 21:32:00,59.0,54.2,29.81,NE,35,3.7,4.0,84,0.00,CLR,OVC,0.01,WeatherDisplay:10.37,2013-06-04 01:32:00,
2013-06-03 21:33:00,59.0,54.2,29.81,NE,34,3.8,4.6,84,0.00,CLR,OVC,0.01,WeatherDisplay:10.37,2013-06-04 01:33:00,
2013-06-03 21:34:00,59.0,54.2,29.81,NE,34,2.0,3.5,84,0.00,CLR,OVC,0.01,WeatherDisplay:10.37,2013-06-04 01:34:00,
2013-06-03 21:37:00,59.0,54.2,29.82,NE,34,1.6,3.5,84,0.00,CLR,OVC,0.01,WeatherDisplay:10.37,2013-06-04 01:37:00,
2013-06-03 21:38:00,59.0,54.2,29.82,NE,34,1.6,3.5,84,0.00,CLR,OVC,0.01,WeatherDisplay:10.37,2013-06-04 01:38:00,
2013-06-03 21:39:00,59.0,54.2,29.82,NE,34,2.2,3.5,84,0.00,CLR,OVC,0.01,WeatherDisplay:10.37,2013-06-04 01:39:00,
2013-06-03 21:42:00,59.0,53.8,29.82,NE,34,2.3,3.5,83,0.00,CLR,OVC,0.01,WeatherDisplay:10.37,2013-06-04 01:42:00,
2013-06-03 21:43:00,59.0,53.8,29.82,NE,34,3.1,3.5,83,0.00,CLR,OVC,0.01,WeatherDisplay:10.37,2013-06-04 01:43:00,
2013-06-03 21:46:00,59.1,53.9,29.82,NE,40,4.4,5.8,83,0.00,CLR,OVC,0.01,WeatherDisplay:10.37,2013-06-04 01:46:00,
2013-06-03 21:47:00,59.1,53.6,29.82,ENE,62,4.9,5.8,82,0.00,CLR,OVC,0.01,WeatherDisplay:10.37,2013-06-04 01:47:00,
2013-06-03 21:48:00,59.1,53.6,29.82,ENE,62,5.0,6.0,82,0.00,CLR,OVC,0.01,WeatherDisplay:10.37,2013-06-04 01:48:00,
2013-06-03 21:52:00,59.2,53.4,29.82,ENE,62,3.3,4.6,81,0.00,CLR,OVC,0.01,WeatherDisplay:10.37,2013-06-04 01:52:00,
2013-06-03 21:53:00,59.2,53.4,29.82,ENE,62,2.0,4.6,81,0.00,CLR,OVC,0.01,WeatherDisplay:10.37,2013-06-04 01:53:00,
2013-06-03 21:57:00,59.1,53.3,29.82,ENE,62,1.9,3.5,81,0.00,CLR,OVC,0.01,WeatherDisplay:10.37,2013-06-04 01:57:00,
2013-06-03 21:58:00,59.1,52.9,29.82,ENE,62,1.7,3.5,80,0.00,CLR,OVC,0.01,WeatherDisplay:10.37,2013-06-04 01:58:00,
2013-06-03 22:02:00,59.1,52.9,29.83,ENE,62,2.1,3.5,80,0.00,CLR,OVC,0.01,WeatherDisplay:10.37,2013-06-04 02:02:00,
2013-06-03 22:03:00,59.1,52.9,29.83,ENE,62,1.9,3.5,80,0.00,CLR,OVC,0.01,WeatherDisplay:10.37,2013-06-04 02:03:00,
2013-06-03 22:04:00,59.0,52.8,29.83,ENE,62,2.1,3.5,80,0.00,CLR,OVC,0.01,WeatherDisplay:10.37,2013-06-04 02:04:00,
2013-06-03 22:07:00,59.0,52.8,29.83,ENE,62,2.5,4.6,80,0.00,CLR,OVC,0.01,WeatherDisplay:10.37,2013-06-04 02:07:00,
2013-06-03 22:08:00,59.0,52.5,29.83,ENE,62,2.8,5.0,79,0.00,CLR,OVC,0.01,WeatherDisplay:10.37,2013-06-04 02:08:00,
2013-06-03 22:09:00,58.9,52.4,29.83,ENE,62,3.6,5.8,79,0.00,CLR,OVC,0.01,WeatherDisplay:10.37,2013-06-04 02:09:00,
2013-06-03 22:12:00,58.9,52.4,29.83,ENE,60,3.9,5.8,79,0.00,CLR,OVC,0.01,WeatherDisplay:10.37,2013-06-04 02:12:00,
2013-06-03 22:13:00,58.9,52.1,29.83,NE,56,4.4,5.8,78,0.00,CLR,OVC,0.01,WeatherDisplay:10.37,2013-06-04 02:13:00,
2013-06-03 22:14:00,58.8,52.0,29.83,NE,56,4.1,5.8,78,0.00,CLR,OVC,0.01,WeatherDisplay:10.37,2013-06-04 02:14:00,
2013-06-03 22:17:00,58.9,51.3,29.83,NE,44,5.1,6.9,76,0.00,CLR,OVC,0.01,WeatherDisplay:10.37,2013-06-04 02:17:00,
2013-06-03 22:18:00,58.9,51.0,29.83,NE,38,4.6,6.9,75,0.00,CLR,OVC,0.01,WeatherDisplay:10.37,2013-06-04 02:18:00,
2013-06-03 22:19:00,59.0,51.1,29.83,NE,38,3.9,5.8,75,0.00,CLR,OVC,0.01,WeatherDisplay:10.37,2013-06-04 02:19:00,
2013-06-03 22:20:00,59.0,50.7,29.83,NNE,16,4.6,6.0,74,0.00,CLR,OVC,0.01,WeatherDisplay:10.37,2013-06-04 02:20:00,
2013-06-03 22:22:00,59.3,50.3,29.83,NNE,19,3.5,5.8,72,0.00,CLR,OVC,0.01,WeatherDisplay:10.37,2013-06-04 02:22:00,
2013-06-03 22:23:00,59.5,50.1,29.83,NNE,20,4.9,5.8,71,0.00,CLR,OVC,0.01,WeatherDisplay:10.37,2013-06-04 02:23:00,
2013-06-03 22:24:00,59.5,50.1,29.83,NNE,20,5.1,6.9,71,0.00,CLR,OVC,0.01,WeatherDisplay:10.37,2013-06-04 02:24:00,
2013-06-03 22:25:00,59.5,49.7,29.83,NNE,19,4.8,5.8,70,0.00,CLR,OVC,0.01,WeatherDisplay:10.37,2013-06-04 02:25:00,
2013-06-03 22:27:00,59.7,49.9,29.83,NNE,19,2.7,4.6,70,0.00,CLR,OVC,0.01,WeatherDisplay:10.37,2013-06-04 02:27:00,
2013-06-03 22:28:00,59.8,50.0,29.83,NE,51,3.1,3.5,70,0.00,CLR,OVC,0.01,WeatherDisplay:10.37,2013-06-04 02:28:00,
2013-06-03 22:29:00,59.8,50.0,29.83,NE,52,3.4,6.9,70,0.00,CLR,OVC,0.01,WeatherDisplay:10.37,2013-06-04 02:29:00,
2013-06-03 22:30:00,59.8,50.0,29.83,NE,52,2.7,6.9,70,0.00,CLR,OVC,0.01,WeatherDisplay:10.37,2013-06-04 02:30:00,
2013-06-03 22:32:00,59.7,49.9,29.83,NE,52,2.7,4.0,70,0.00,CLR,OVC,0.01,WeatherDisplay:10.37,2013-06-04 02:32:00,
2013-06-03 22:34:00,59.7,49.9,29.83,NNE,33,3.2,5.0,70,0.00,CLR,OVC,0.01,WeatherDisplay:10.37,2013-06-04 02:34:00,
2013-06-03 22:35:00,59.6,49.4,29.83,NNE,14,4.7,5.8,69,0.00,CLR,OVC,0.01,WeatherDisplay:10.37,2013-06-04 02:35:00,
2013-06-03 22:37:00,59.6,48.6,29.83,North,11,2.6,4.0,67,0.00,CLR,OVC,0.01,WeatherDisplay:10.37,2013-06-04 02:37:00,
2013-06-03 22:39:00,59.6,48.6,29.83,North,11,3.6,5.0,67,0.00,CLR,OVC,0.01,WeatherDisplay:10.37,2013-06-04 02:39:00,
2013-06-03 22:40:00,59.6,48.6,29.83,NNE,24,5.3,5.3,67,0.00,CLR,OVC,0.01,WeatherDisplay:10.37,2013-06-04 02:40:00,
2013-06-03 22:42:00,59.7,48.3,29.83,NNE,13,2.6,8.1,66,0.00,CLR,OVC,0.01,WeatherDisplay:10.37,2013-06-04 02:42:00,
2013-06-03 22:44:00,59.6,47.8,29.83,NNW,335,3.6,9.2,65,0.00,CLR,OVC,0.01,WeatherDisplay:10.37,2013-06-04 02:44:00,
2013-06-03 22:45:00,59.7,47.9,29.83,NNW,335,3.3,9.2,65,0.00,CLR,OVC,0.01,WeatherDisplay:10.37,2013-06-04 02:45:00,
2013-06-03 22:47:00,59.9,47.7,29.83,North,351,6.1,11.5,64,0.00,CLR,OVC,0.01,WeatherDisplay:10.37,2013-06-04 02:47:00,
2013-06-03 22:50:00,60.0,48.2,29.83,North,351,2.0,3.5,65,0.00,CLR,OVC,0.01,WeatherDisplay:10.37,2013-06-04 02:50:00,
2013-06-03 22:52:00,60.0,47.8,29.83,North,351,4.2,5.8,64,0.00,CLR,OVC,0.01,WeatherDisplay:10.37,2013-06-04 02:52:00,
2013-06-03 22:55:00,59.9,47.7,29.83,NNW,343,5.4,7.0,64,0.00,CLR,OVC,0.01,WeatherDisplay:10.37,2013-06-04 02:55:00,
2013-06-03 22:56:00,59.8,47.6,29.83,NW,321,6.0,6.9,64,0.00,CLR,OVC,0.01,WeatherDisplay:10.37,2013-06-04 02:56:00,
2013-06-03 22:57:00,59.7,47.1,29.83,NW,318,4.5,6.9,63,0.00,CLR,OVC,0.01,WeatherDisplay:10.37,2013-06-04 02:57:00,
2013-06-03 23:00:00,59.6,47.0,29.83,NW,319,3.5,5.8,63,0.00,CLR,OVC,0.01,WeatherDisplay:10.37,2013-06-04 03:00:00,
2013-06-03 23:01:00,59.5,46.9,29.83,NW,319,3.3,5.8,63,0.00,CLR,OVC,0.01,WeatherDisplay:10.37,2013-06-04 03:01:00,
2013-06-03 23:02:00,59.5,46.9,29.83,NW,319,3.5,4.6,63,0.00,CLR,OVC,0.01,WeatherDisplay:10.37,2013-06-04 03:02:00,
2013-06-03 23:03:00,59.5,46.9,29.83,NW,319,4.2,5.8,63,0.00,CLR,OVC,0.01,WeatherDisplay:10.37,2013-06-04 03:03:00,
2013-06-03 23:05:00,59.3,47.1,29.83,NW,319,3.7,4.6,64,0.00,CLR,OVC,0.01,WeatherDisplay:10.37,2013-06-04 03:05:00,
2013-06-03 23:06:00,59.3,47.1,29.83,NW,319,3.8,4.6,64,0.00,CLR,OVC,0.01,WeatherDisplay:10.37,2013-06-04 03:06:00,
2013-06-03 23:08:00,59.2,47.0,29.83,NW,321,5.0,6.9,64,0.00,CLR,OVC,0.01,WeatherDisplay:10.37,2013-06-04 03:08:00,
2013-06-03 23:10:00,59.0,46.8,29.83,NNE,26,5.8,6.0,64,0.00,CLR,OVC,0.01,WeatherDisplay:10.37,2013-06-04 03:10:00,
2013-06-03 23:11:00,59.0,47.2,29.83,North,5,6.0,8.1,65,0.00,CLR,OVC,0.01,WeatherDisplay:10.37,2013-06-04 03:11:00,
2013-06-03 23:13:00,58.9,46.7,29.84,North,0,5.0,6.9,64,0.00,CLR,OVC,0.01,WeatherDisplay:10.37,2013-06-04 03:13:00,
2013-06-03 23:15:00,58.8,47.1,29.84,NNE,13,3.9,8.1,65,0.00,CLR,OVC,0.01,WeatherDisplay:10.37,2013-06-04 03:15:00,
2013-06-03 23:16:00,58.8,47.1,29.84,NNE,13,3.8,5.8,65,0.00,CLR,OVC,0.01,WeatherDisplay:10.37,2013-06-04 03:16:00,
2013-06-03 23:18:00,58.7,46.5,29.84,NNE,14,4.7,6.9,64,0.00,CLR,OVC,0.01,WeatherDisplay:10.37,2013-06-04 03:18:00,
2013-06-03 23:21:00,58.8,46.6,29.84,NNE,13,3.0,5.8,64,0.00,CLR,OVC,0.01,WeatherDisplay:10.37,2013-06-04 03:21:00,
2013-06-03 23:23:00,58.7,47.0,29.84,NNE,13,1.8,3.5,65,0.00,CLR,OVC,0.01,WeatherDisplay:10.37,2013-06-04 03:23:00,
2013-06-03 23:26:00,58.6,46.5,29.84,North,2,5.2,8.1,64,0.00,CLR,OVC,0.01,WeatherDisplay:10.37,2013-06-04 03:26:00,
2013-06-03 23:27:00,58.6,46.5,29.84,North,0,4.2,6.9,64,0.00,CLR,OVC,0.01,WeatherDisplay:10.37,2013-06-04 03:27:00,
2013-06-03 23:28:00,58.5,46.4,29.84,North,0,7.0,11.5,64,0.00,CLR,OVC,0.01,WeatherDisplay:10.37,2013-06-04 03:28:00,
2013-06-03 23:29:00,58.5,46.4,29.84,North,0,7.1,11.5,64,0.00,CLR,OVC,0.01,WeatherDisplay:10.37,2013-06-04 03:29:00,
2013-06-03 23:31:00,58.6,46.5,29.84,NNW,342,6.6,8.1,64,0.00,CLR,OVC,0.01,WeatherDisplay:10.37,2013-06-04 03:31:00,
2013-06-03 23:32:00,58.5,45.9,29.84,North,357,5.7,7.0,63,0.00,CLR,OVC,0.01,WeatherDisplay:10.37,2013-06-04 03:32:00,
2013-06-03 23:33:00,58.5,46.4,29.84,North,356,4.9,8.1,64,0.00,CLR,OVC,0.01,WeatherDisplay:10.37,2013-06-04 03:33:00,
2013-06-03 23:34:00,58.6,46.5,29.84,North,356,4.5,5.8,64,0.00,CLR,OVC,0.01,WeatherDisplay:10.37,2013-06-04 03:34:00,
2013-06-03 23:36:00,58.6,46.0,29.84,North,0,5.6,6.0,63,0.00,CLR,OVC,0.01,WeatherDisplay:10.37,2013-06-04 03:36:00,
2013-06-03 23:37:00,58.6,46.0,29.84,North,0,5.1,8.1,63,0.00,CLR,OVC,0.01,WeatherDisplay:10.37,2013-06-04 03:37:00,
2013-06-03 23:39:00,58.5,45.9,29.84,North,0,5.9,8.1,63,0.00,CLR,OVC,0.01,WeatherDisplay:10.37,2013-06-04 03:39:00,
2013-06-03 23:42:00,58.5,45.9,29.84,North,359,6.6,11.5,63,0.00,CLR,OVC,0.01,WeatherDisplay:10.37,2013-06-04 03:42:00,
2013-06-03 23:44:00,58.5,45.9,29.85,North,359,8.1,11.5,63,0.00,CLR,OVC,0.01,WeatherDisplay:10.37,2013-06-04 03:44:00,
2013-06-03 23:47:00,58.5,45.9,29.85,North,352,6.7,9.2,63,0.00,CLR,OVC,0.01,WeatherDisplay:10.37,2013-06-04 03:47:00,
2013-06-03 23:49:00,58.5,45.9,29.85,North,4,5.4,6.9,63,0.00,CLR,OVC,0.01,WeatherDisplay:10.37,2013-06-04 03:49:00,
2013-06-03 23:52:00,58.5,45.9,29.85,NNE,12,5.9,8.1,63,0.00,CLR,OVC,0.01,WeatherDisplay:10.37,2013-06-04 03:52:00,
2013-06-03 23:53:00,58.4,45.8,29.84,North,3,5.3,6.9,63,0.00,CLR,OVC,0.01,WeatherDisplay:10.37,2013-06-04 03:53:00,
2013-06-03 23:54:00,58.4,45.8,29.85,North,358,5.4,6.9,63,0.00,CLR,OVC,0.01,WeatherDisplay:10.37,2013-06-04 03:54:00,
2013-06-03 23:55:00,58.4,45.8,29.84,North,354,4.6,6.9,63,0.00,CLR,OVC,0.01,WeatherDisplay:10.37,2013-06-04 03:55:00,
2013-06-03 23:57:00,58.4,45.4,29.84,North,0,4.5,6.9,62,0.00,CLR,OVC,0.01,WeatherDisplay:10.37,2013-06-04 03:57:00,
2013-06-03 23:58:00,58.4,45.4,29.84,North,0,3.8,6.9,62,0.00,CLR,OVC,0.01,WeatherDisplay:10.37,2013-06-04 03:58:00,
2013-06-03 23:59:00,58.4,45.8,29.84,North,4,4.1,6.0,63,0.00,CLR,OVC,0.01,WeatherDisplay:10.37,2013-06-04 03:59:00,